GAF310 KHMN-SKCC

Flight info

Callsign GAF310
Flight time 5h 32m
Altitude 37000
Route GINGR J108 INK J15 JCT J86 KAPAA DCT SBI A766 KEHLI UA766 ITLOM UM782 AGUJA UQ117 LOKOV DCT DIMIL DIMIL1F
Aircraft A400/H-SDE3FGHIRWY/L4T

Departure

Time 2026-05-06 10:31
Airport Holloman Air Force Base (KHMN)

Arrival

Time 2026-05-06 16:04
Airport Camilo Daza International Airport (SKCC)
Time Latitude Longitude Altitude Speed Heading
2026-05-06 09:50 32.84453 -106.08782 4090 ft 0 kts 258°
2026-05-06 10:28 32.84458 -106.08806 4090 ft 6 kts 307°
2026-05-06 10:28 32.84503 -106.08788 4091 ft 9 kts 40°
2026-05-06 10:29 32.84559 -106.08731 4092 ft 11 kts 43°
2026-05-06 10:29 32.84609 -106.08646 4093 ft 14 kts 56°
2026-05-06 10:29 32.84677 -106.08557 4096 ft 16 kts 43°
2026-05-06 10:29 32.84759 -106.08457 4097 ft 18 kts 50°
2026-05-06 10:30 32.84847 -106.08338 4099 ft 20 kts 47°
2026-05-06 10:30 32.84940 -106.08218 4098 ft 13 kts 47°
2026-05-06 10:30 32.85030 -106.08176 4101 ft 16 kts 354°
2026-05-06 10:30 32.85144 -106.08224 4101 ft 19 kts 329°
2026-05-06 10:31 32.85242 -106.08341 4102 ft 21 kts 307°
2026-05-06 10:31 32.85232 -106.08590 4099 ft 75 kts 259°
2026-05-06 10:31 32.85055 -106.09679 4173 ft 175 kts 258°
2026-05-06 10:31 32.84709 -106.11183 5118 ft 208 kts 254°
2026-05-06 10:32 32.84193 -106.12980 5737 ft 238 kts 249°
2026-05-06 10:32 32.83478 -106.14884 6382 ft 262 kts 239°
2026-05-06 10:32 32.82035 -106.16191 7516 ft 268 kts 201°
2026-05-06 10:32 32.80183 -106.16220 8758 ft 280 kts 167°
2026-05-06 10:33 32.78537 -106.14931 9980 ft 295 kts 134°
2026-05-06 10:33 32.77667 -106.12681 11054 ft 310 kts 102°
2026-05-06 10:33 32.77868 -106.10094 12081 ft 323 kts 71°
2026-05-06 10:33 32.78477 -106.08456 12738 ft 330 kts 64°
2026-05-06 10:34 32.79555 -106.05996 13725 ft 344 kts 62°
2026-05-06 10:34 32.80753 -106.03355 13945 ft 379 kts 63°
2026-05-06 10:34 32.81920 -106.00405 14038 ft 405 kts 68°
2026-05-06 10:34 32.82899 -105.97173 14072 ft 424 kts 74°
2026-05-06 10:35 32.83671 -105.93771 14409 ft 428 kts 78°
2026-05-06 10:35 32.84278 -105.90297 14840 ft 431 kts 81°
2026-05-06 10:35 32.84761 -105.86753 15194 ft 436 kts 84°
2026-05-06 10:35 32.85139 -105.83208 15553 ft 439 kts 86°
2026-05-06 10:36 32.85440 -105.79575 15926 ft 442 kts 88°
2026-05-06 10:36 32.85672 -105.75917 16239 ft 446 kts 89°
2026-05-06 10:36 32.85851 -105.72228 16542 ft 449 kts 90°
2026-05-06 10:36 32.85989 -105.68500 16833 ft 452 kts 91°
2026-05-06 10:37 32.86092 -105.64755 17159 ft 454 kts 91°
2026-05-06 10:37 32.85940 -105.61022 17363 ft 449 kts 107°
2026-05-06 10:37 32.84996 -105.57513 17653 ft 444 kts 116°
2026-05-06 10:37 32.83835 -105.54113 17950 ft 444 kts 119°
2026-05-06 10:38 32.82604 -105.50790 18225 ft 445 kts 120°
2026-05-06 10:38 32.81295 -105.47396 18444 ft 446 kts 121°
2026-05-06 10:38 32.79979 -105.44060 18671 ft 447 kts 121°
2026-05-06 10:38 32.78637 -105.40703 18882 ft 449 kts 122°
2026-05-06 10:39 32.77286 -105.37352 19072 ft 450 kts 122°
2026-05-06 10:39 32.75924 -105.33992 19260 ft 452 kts 122°
2026-05-06 10:39 32.74574 -105.30671 19443 ft 453 kts 122°
2026-05-06 10:39 32.73196 -105.27294 19611 ft 455 kts 122°
2026-05-06 10:40 32.71813 -105.23906 19768 ft 456 kts 122°
2026-05-06 10:40 32.70424 -105.20508 19913 ft 458 kts 122°
2026-05-06 10:40 32.69029 -105.17103 20055 ft 459 kts 122°
2026-05-06 10:40 32.67622 -105.13678 20208 ft 461 kts 122°
2026-05-06 10:41 32.66215 -105.10259 20331 ft 462 kts 123°
2026-05-06 10:41 32.64798 -105.06820 20474 ft 464 kts 123°
2026-05-06 10:41 32.63380 -105.03381 20593 ft 465 kts 123°
2026-05-06 10:41 32.61954 -104.99931 20697 ft 466 kts 123°
2026-05-06 10:42 32.60523 -104.96472 20816 ft 468 kts 123°
2026-05-06 10:42 32.59087 -104.93004 20924 ft 469 kts 123°
2026-05-06 10:42 32.57648 -104.89535 21026 ft 470 kts 123°
2026-05-06 10:42 32.56219 -104.86091 21138 ft 471 kts 123°
2026-05-06 10:43 32.54771 -104.82605 21244 ft 472 kts 123°
2026-05-06 10:43 32.53321 -104.79118 21350 ft 472 kts 123°
2026-05-06 10:43 32.51851 -104.75586 21443 ft 473 kts 123°
2026-05-06 10:44 32.48950 -104.68634 21626 ft 474 kts 123°
2026-05-06 10:44 32.47488 -104.65133 21720 ft 474 kts 123°
2026-05-06 10:44 32.46020 -104.61623 21804 ft 475 kts 123°
2026-05-06 10:44 32.44554 -104.58122 21891 ft 475 kts 123°
2026-05-06 10:45 32.43084 -104.54612 21974 ft 476 kts 123°
2026-05-06 10:45 32.41610 -104.51098 22083 ft 477 kts 123°
2026-05-06 10:45 32.40132 -104.47584 22158 ft 478 kts 123°
2026-05-06 10:45 32.38649 -104.44057 22222 ft 478 kts 123°
2026-05-06 10:46 32.37162 -104.40524 22290 ft 479 kts 123°
2026-05-06 10:46 32.35677 -104.36997 22359 ft 479 kts 123°
2026-05-06 10:46 32.34185 -104.33458 22395 ft 480 kts 123°
2026-05-06 10:46 32.32714 -104.29970 22439 ft 481 kts 123°
2026-05-06 10:47 32.31221 -104.26431 22489 ft 481 kts 123°
2026-05-06 10:47 32.29719 -104.22878 22538 ft 482 kts 124°
2026-05-06 10:47 32.28215 -104.19320 22584 ft 483 kts 124°
2026-05-06 10:47 32.26713 -104.15773 22617 ft 483 kts 124°
2026-05-06 10:48 32.25204 -104.12213 22647 ft 484 kts 124°
2026-05-06 10:48 32.23692 -104.08651 22677 ft 485 kts 124°
2026-05-06 10:48 32.22181 -104.05093 22684 ft 485 kts 124°
2026-05-06 10:48 32.20666 -104.01530 22697 ft 486 kts 124°
2026-05-06 10:49 32.19163 -103.97999 22733 ft 487 kts 124°
2026-05-06 10:49 32.17639 -103.94421 22752 ft 487 kts 124°
2026-05-06 10:49 32.16114 -103.90849 22763 ft 488 kts 124°
2026-05-06 10:49 32.14581 -103.87258 22800 ft 489 kts 124°
2026-05-06 10:50 32.13049 -103.83676 22829 ft 489 kts 124°
2026-05-06 10:50 32.11514 -103.80088 22872 ft 490 kts 124°
2026-05-06 10:50 32.09994 -103.76541 22873 ft 491 kts 124°
2026-05-06 10:50 32.08453 -103.72947 22906 ft 491 kts 124°
2026-05-06 10:51 32.06907 -103.69343 22923 ft 492 kts 124°
2026-05-06 10:51 32.05359 -103.65742 22958 ft 493 kts 124°
2026-05-06 10:51 32.03808 -103.62139 22978 ft 493 kts 124°
2026-05-06 10:51 32.02255 -103.58533 23007 ft 494 kts 124°
2026-05-06 10:52 32.00698 -103.54922 23035 ft 494 kts 124°
2026-05-06 10:52 31.99137 -103.51306 23054 ft 494 kts 124°
2026-05-06 10:52 31.97575 -103.47691 23064 ft 495 kts 124°
2026-05-06 10:52 31.96010 -103.44070 23082 ft 495 kts 124°
2026-05-06 10:53 31.94444 -103.40452 23114 ft 496 kts 124°
2026-05-06 10:53 31.92878 -103.36837 23121 ft 496 kts 124°
2026-05-06 10:53 31.91309 -103.33215 23122 ft 497 kts 124°
2026-05-06 10:53 31.89734 -103.29586 23142 ft 497 kts 124°
2026-05-06 10:54 31.88212 -103.25918 23151 ft 500 kts 122°
2026-05-06 10:54 31.86779 -103.22175 23159 ft 501 kts 120°
2026-05-06 10:54 31.85390 -103.18417 23167 ft 502 kts 120°
2026-05-06 10:54 31.84033 -103.14678 23195 ft 503 kts 119°
2026-05-06 10:55 31.82653 -103.10839 23203 ft 503 kts 119°
2026-05-06 10:55 31.81297 -103.07049 23221 ft 503 kts 119°
2026-05-06 10:55 31.79940 -103.03249 23222 ft 504 kts 119°
2026-05-06 10:55 31.78585 -102.99453 23235 ft 504 kts 119°
2026-05-06 10:56 31.77227 -102.95646 23248 ft 504 kts 119°
2026-05-06 10:56 31.75889 -102.91896 23263 ft 505 kts 118°
2026-05-06 10:56 31.74526 -102.88086 23268 ft 505 kts 118°
2026-05-06 10:56 31.73167 -102.84290 23285 ft 505 kts 118°
2026-05-06 10:57 31.71801 -102.80477 23287 ft 505 kts 118°
2026-05-06 10:57 31.70437 -102.76675 23297 ft 505 kts 118°
2026-05-06 10:57 31.69066 -102.72859 23312 ft 506 kts 118°
2026-05-06 10:57 31.67700 -102.69064 23321 ft 506 kts 118°
2026-05-06 10:58 31.66333 -102.65265 23342 ft 506 kts 118°
2026-05-06 10:58 31.64954 -102.61441 23354 ft 506 kts 118°
2026-05-06 10:58 31.63584 -102.57647 23357 ft 506 kts 118°
2026-05-06 10:58 31.62210 -102.53846 23360 ft 506 kts 118°
2026-05-06 10:59 31.60851 -102.50089 23366 ft 506 kts 118°
2026-05-06 10:59 31.59473 -102.46286 23365 ft 506 kts 118°
2026-05-06 10:59 31.58099 -102.42494 23360 ft 506 kts 118°
2026-05-06 10:59 31.56714 -102.38683 23358 ft 506 kts 118°
2026-05-06 11:00 31.55333 -102.34885 23363 ft 506 kts 118°
2026-05-06 11:00 31.53952 -102.31085 23391 ft 506 kts 118°
2026-05-06 11:00 31.52566 -102.27281 23396 ft 506 kts 118°
2026-05-06 11:00 31.51182 -102.23486 23400 ft 507 kts 118°
2026-05-06 11:01 31.49797 -102.19691 23405 ft 506 kts 118°
2026-05-06 11:01 31.48409 -102.15892 23407 ft 506 kts 118°
2026-05-06 11:01 31.47022 -102.12101 23401 ft 507 kts 118°
2026-05-06 11:01 31.45632 -102.08304 23406 ft 507 kts 118°
2026-05-06 11:02 31.44239 -102.04505 23406 ft 507 kts 118°
2026-05-06 11:02 31.42863 -102.00760 23415 ft 507 kts 118°
2026-05-06 11:02 31.41467 -101.96951 23421 ft 506 kts 119°
2026-05-06 11:02 31.40075 -101.93170 23412 ft 506 kts 118°
2026-05-06 11:03 31.38665 -101.89332 23412 ft 506 kts 118°
2026-05-06 11:03 31.37271 -101.85546 23408 ft 507 kts 118°
2026-05-06 11:03 31.35874 -101.81761 23434 ft 506 kts 118°
2026-05-06 11:03 31.34457 -101.77930 23438 ft 506 kts 118°
2026-05-06 11:04 31.33058 -101.74153 23436 ft 506 kts 119°
2026-05-06 11:04 31.31659 -101.70378 23445 ft 506 kts 119°
2026-05-06 11:04 31.30254 -101.66594 23456 ft 506 kts 119°
2026-05-06 11:04 31.28872 -101.62874 23461 ft 506 kts 119°
2026-05-06 11:05 31.27464 -101.59091 23465 ft 506 kts 119°
2026-05-06 11:05 31.26060 -101.55320 23465 ft 506 kts 119°
2026-05-06 11:05 31.24652 -101.51538 23475 ft 506 kts 119°
2026-05-06 11:05 31.23250 -101.47779 23481 ft 506 kts 119°
2026-05-06 11:06 31.21838 -101.43997 23487 ft 506 kts 119°
2026-05-06 11:06 31.20433 -101.40239 23498 ft 506 kts 119°
2026-05-06 11:06 31.19040 -101.36514 23516 ft 506 kts 119°
2026-05-06 11:06 31.17630 -101.32749 23517 ft 506 kts 119°
2026-05-06 11:07 31.16235 -101.28984 23703 ft 500 kts 122°
2026-05-06 11:07 31.14873 -101.25274 23902 ft 492 kts 122°
2026-05-06 11:07 31.13510 -101.21620 23899 ft 491 kts 122°
2026-05-06 11:07 31.12128 -101.17947 23901 ft 491 kts 122°
2026-05-06 11:08 31.10751 -101.14306 23898 ft 492 kts 122°
2026-05-06 11:08 31.09382 -101.10696 23889 ft 492 kts 122°
2026-05-06 11:08 31.07994 -101.07041 23889 ft 492 kts 122°
2026-05-06 11:08 31.06604 -101.03385 23886 ft 492 kts 122°
2026-05-06 11:09 31.05217 -100.99736 23883 ft 493 kts 122°
2026-05-06 11:09 31.03810 -100.96034 23889 ft 493 kts 122°
2026-05-06 11:09 31.02438 -100.92426 23884 ft 493 kts 122°
2026-05-06 11:09 31.01047 -100.88769 23885 ft 493 kts 122°
2026-05-06 11:10 30.99807 -100.85513 23888 ft 493 kts 122°
2026-05-06 11:10 30.98416 -100.81861 23887 ft 493 kts 122°
2026-05-06 11:10 30.97021 -100.78201 23902 ft 493 kts 122°
2026-05-06 11:10 30.95631 -100.74555 23899 ft 493 kts 122°
2026-05-06 11:11 30.94239 -100.70908 23899 ft 493 kts 122°
2026-05-06 11:11 30.92843 -100.67256 23904 ft 493 kts 122°
2026-05-06 11:11 30.91451 -100.63614 23910 ft 493 kts 122°
2026-05-06 11:11 30.90054 -100.59965 23910 ft 493 kts 122°
2026-05-06 11:12 30.88660 -100.56325 23910 ft 493 kts 122°
2026-05-06 11:12 30.87261 -100.52680 23915 ft 493 kts 122°
2026-05-06 11:12 30.85864 -100.49040 23909 ft 493 kts 122°
2026-05-06 11:12 30.84464 -100.45393 23904 ft 492 kts 122°
2026-05-06 11:13 30.83062 -100.41749 23902 ft 492 kts 122°
2026-05-06 11:13 30.81666 -100.38122 23900 ft 492 kts 122°
2026-05-06 11:13 30.80264 -100.34483 23893 ft 492 kts 122°
2026-05-06 11:13 30.78865 -100.30854 23890 ft 492 kts 122°
2026-05-06 11:14 30.77465 -100.27226 23889 ft 491 kts 122°
2026-05-06 11:14 30.76063 -100.23598 23890 ft 491 kts 122°
2026-05-06 11:14 30.74660 -100.19971 23890 ft 491 kts 122°
2026-05-06 11:14 30.73261 -100.16357 23893 ft 491 kts 122°
2026-05-06 11:15 30.71859 -100.12738 23889 ft 490 kts 122°
2026-05-06 11:15 30.70437 -100.09071 23896 ft 490 kts 122°
2026-05-06 11:15 30.69039 -100.05467 23911 ft 490 kts 122°
2026-05-06 11:15 30.67632 -100.01851 23919 ft 490 kts 122°
2026-05-06 11:16 30.66247 -99.98292 23930 ft 490 kts 121°
2026-05-06 11:16 30.64844 -99.94687 23944 ft 489 kts 122°
2026-05-06 11:16 30.63453 -99.91109 24034 ft 481 kts 122°
2026-05-06 11:16 30.62088 -99.87592 24096 ft 477 kts 122°
2026-05-06 11:17 30.60815 -99.84004 24096 ft 488 kts 113°
2026-05-06 11:17 30.60005 -99.80134 24111 ft 495 kts 108°
2026-05-06 11:17 30.59351 -99.76199 24120 ft 498 kts 106°
2026-05-06 11:17 30.58763 -99.72234 24152 ft 499 kts 105°
2026-05-06 11:18 30.58213 -99.68276 24216 ft 494 kts 104°
2026-05-06 11:18 30.57687 -99.64338 24274 ft 494 kts 104°
2026-05-06 11:18 30.57169 -99.60382 24341 ft 496 kts 104°
2026-05-06 11:18 30.56661 -99.56468 24390 ft 497 kts 104°
2026-05-06 11:19 30.56147 -99.52493 24440 ft 498 kts 104°
2026-05-06 11:19 30.55633 -99.48512 24501 ft 499 kts 104°
2026-05-06 11:19 30.55120 -99.44535 24558 ft 500 kts 104°
2026-05-06 11:19 30.54604 -99.40537 24615 ft 500 kts 104°
2026-05-06 11:20 30.54088 -99.36542 24669 ft 501 kts 104°
2026-05-06 11:20 30.53570 -99.32548 24728 ft 501 kts 104°
2026-05-06 11:20 30.53049 -99.28535 24769 ft 503 kts 104°
2026-05-06 11:20 30.52527 -99.24531 24785 ft 504 kts 104°
2026-05-06 11:21 30.52000 -99.20502 24795 ft 505 kts 104°
2026-05-06 11:21 30.51467 -99.16421 24804 ft 503 kts 104°
2026-05-06 11:21 30.50943 -99.12414 24826 ft 501 kts 104°
2026-05-06 11:21 30.50425 -99.08468 24819 ft 501 kts 104°
2026-05-06 11:22 30.49899 -99.04475 24811 ft 501 kts 104°
2026-05-06 11:22 30.49371 -99.00476 24806 ft 501 kts 104°
2026-05-06 11:22 30.48844 -98.96483 24804 ft 500 kts 104°
2026-05-06 11:22 30.48307 -98.92440 24808 ft 500 kts 104°
2026-05-06 11:23 30.47784 -98.88506 24803 ft 500 kts 104°
2026-05-06 11:23 30.47252 -98.84512 24806 ft 500 kts 104°
2026-05-06 11:23 30.46749 -98.80751 24811 ft 500 kts 104°
2026-05-06 11:23 30.46216 -98.76770 24814 ft 499 kts 104°
2026-05-06 11:24 30.45855 -98.74081 24818 ft 499 kts 104°
2026-05-06 11:24 30.45316 -98.70069 24825 ft 498 kts 104°
2026-05-06 11:24 30.44780 -98.66101 24836 ft 498 kts 104°
2026-05-06 11:24 30.44243 -98.62129 24847 ft 498 kts 104°
2026-05-06 11:25 30.43705 -98.58155 24855 ft 499 kts 104°
2026-05-06 11:25 30.43165 -98.54185 24867 ft 499 kts 104°
2026-05-06 11:25 30.42627 -98.50233 24874 ft 499 kts 104°
2026-05-06 11:25 30.42077 -98.46204 24883 ft 498 kts 104°
2026-05-06 11:26 30.41533 -98.42236 24886 ft 498 kts 104°
2026-05-06 11:26 30.40990 -98.38277 24887 ft 498 kts 104°
2026-05-06 11:26 30.40446 -98.34311 24884 ft 497 kts 104°
2026-05-06 11:26 30.39910 -98.30409 24878 ft 497 kts 104°
2026-05-06 11:27 30.39358 -98.26398 24875 ft 497 kts 104°
2026-05-06 11:27 30.38814 -98.22445 24867 ft 497 kts 104°
2026-05-06 11:27 30.38269 -98.18497 24862 ft 497 kts 104°
2026-05-06 11:27 30.37728 -98.14585 24855 ft 497 kts 104°
2026-05-06 11:28 30.37179 -98.10633 24846 ft 497 kts 104°
2026-05-06 11:28 30.36622 -98.06626 24842 ft 497 kts 104°
2026-05-06 11:28 30.36069 -98.02668 24829 ft 497 kts 104°
2026-05-06 11:28 30.35515 -97.98714 24828 ft 497 kts 104°
2026-05-06 11:29 30.34954 -97.94713 24838 ft 497 kts 104°
2026-05-06 11:29 30.34399 -97.90761 24843 ft 497 kts 104°
2026-05-06 11:29 30.33842 -97.86818 24847 ft 497 kts 104°
2026-05-06 11:29 30.33283 -97.82858 24852 ft 498 kts 104°
2026-05-06 11:30 30.32715 -97.78851 24855 ft 498 kts 104°
2026-05-06 11:30 30.32145 -97.74833 24860 ft 498 kts 104°
2026-05-06 11:30 30.31590 -97.70928 24865 ft 497 kts 104°
2026-05-06 11:30 30.31021 -97.66935 24863 ft 497 kts 104°
2026-05-06 11:31 30.30459 -97.63000 24876 ft 497 kts 104°
2026-05-06 11:31 30.29893 -97.59044 24864 ft 497 kts 104°
2026-05-06 11:31 30.29319 -97.55044 24860 ft 497 kts 104°
2026-05-06 11:31 30.28744 -97.51056 24847 ft 497 kts 104°
2026-05-06 11:32 30.28172 -97.47085 24840 ft 497 kts 104°
2026-05-06 11:32 30.27608 -97.43179 24837 ft 497 kts 104°
2026-05-06 11:32 30.27036 -97.39227 24822 ft 498 kts 104°
2026-05-06 11:32 30.26463 -97.35276 24808 ft 498 kts 104°
2026-05-06 11:33 30.25887 -97.31318 24815 ft 497 kts 104°
2026-05-06 11:33 30.25314 -97.27384 24825 ft 497 kts 104°
2026-05-06 11:33 30.24737 -97.23433 24838 ft 496 kts 104°
2026-05-06 11:33 30.24161 -97.19496 24859 ft 496 kts 104°
2026-05-06 11:34 30.23583 -97.15559 24864 ft 497 kts 104°
2026-05-06 11:34 30.23010 -97.11671 24886 ft 497 kts 104°
2026-05-06 11:34 30.22422 -97.07686 24909 ft 497 kts 104°
2026-05-06 11:34 30.21842 -97.03750 24913 ft 496 kts 104°
2026-05-06 11:35 30.21260 -96.99816 24920 ft 496 kts 104°
2026-05-06 11:35 30.20671 -96.95835 24922 ft 496 kts 104°
2026-05-06 11:35 30.20095 -96.91956 24914 ft 496 kts 104°
2026-05-06 11:35 30.19511 -96.88027 24914 ft 496 kts 104°
2026-05-06 11:36 30.18917 -96.84042 24889 ft 495 kts 104°
2026-05-06 11:36 30.18331 -96.80124 24863 ft 495 kts 104°
2026-05-06 11:36 30.17743 -96.76199 24838 ft 495 kts 104°
2026-05-06 11:36 30.17154 -96.72273 24816 ft 495 kts 104°
2026-05-06 11:37 30.16564 -96.68355 24789 ft 495 kts 104°
2026-05-06 11:37 30.15971 -96.64420 24756 ft 495 kts 104°
2026-05-06 11:37 30.15386 -96.60552 24732 ft 495 kts 104°
2026-05-06 11:37 30.14790 -96.56615 24702 ft 495 kts 104°
2026-05-06 11:38 30.14189 -96.52654 24697 ft 495 kts 104°
2026-05-06 11:38 30.13601 -96.48781 24698 ft 495 kts 104°
2026-05-06 11:38 30.13004 -96.44866 24690 ft 495 kts 104°
2026-05-06 11:38 30.12406 -96.40948 24696 ft 495 kts 104°
2026-05-06 11:39 30.11805 -96.37023 24693 ft 495 kts 104°
2026-05-06 11:39 30.11204 -96.33099 24692 ft 495 kts 104°
2026-05-06 11:39 30.10595 -96.29140 24694 ft 495 kts 104°
2026-05-06 11:39 30.09999 -96.25272 24701 ft 495 kts 104°
2026-05-06 11:40 30.09388 -96.21310 24701 ft 495 kts 104°
2026-05-06 11:40 30.08782 -96.17390 24701 ft 496 kts 104°
2026-05-06 11:40 30.08174 -96.13467 24719 ft 496 kts 104°
2026-05-06 11:40 30.07562 -96.09532 24736 ft 496 kts 104°
2026-05-06 11:41 30.06953 -96.05609 24751 ft 495 kts 104°
2026-05-06 11:41 30.06343 -96.01698 24770 ft 495 kts 104°
2026-05-06 11:41 30.05732 -95.97786 24787 ft 495 kts 104°
2026-05-06 11:41 30.05120 -95.93875 24799 ft 496 kts 104°
2026-05-06 11:42 30.04506 -95.89954 24807 ft 496 kts 104°
2026-05-06 11:42 30.03891 -95.86033 24813 ft 496 kts 104°
2026-05-06 11:42 30.03283 -95.82168 24820 ft 496 kts 104°
2026-05-06 11:42 30.02665 -95.78253 24833 ft 496 kts 104°
2026-05-06 11:43 30.02046 -95.74334 24852 ft 496 kts 104°
2026-05-06 11:43 30.01426 -95.70418 24859 ft 496 kts 104°
2026-05-06 11:43 30.00805 -95.66505 24869 ft 496 kts 104°
2026-05-06 11:44 29.99558 -95.58669 24875 ft 496 kts 104°
2026-05-06 11:44 29.98934 -95.54756 24877 ft 496 kts 104°
2026-05-06 11:44 29.98308 -95.50840 24877 ft 497 kts 104°
2026-05-06 11:44 29.97679 -95.46914 24875 ft 497 kts 104°
2026-05-06 11:45 29.97051 -95.42999 24887 ft 497 kts 104°
2026-05-06 11:45 29.96421 -95.39083 24887 ft 497 kts 104°
2026-05-06 11:45 29.95836 -95.35161 24887 ft 497 kts 103°
2026-05-06 11:45 29.95287 -95.31214 24887 ft 498 kts 102°
2026-05-06 11:46 29.94758 -95.27270 24887 ft 498 kts 102°
2026-05-06 11:46 29.94405 -95.24593 24884 ft 498 kts 102°
2026-05-06 11:46 29.93896 -95.20696 24886 ft 498 kts 102°
2026-05-06 11:46 29.93380 -95.16724 24886 ft 498 kts 102°
2026-05-06 11:47 29.92848 -95.12627 24883 ft 498 kts 102°
2026-05-06 11:47 29.92340 -95.08711 24886 ft 498 kts 102°
2026-05-06 11:47 29.91826 -95.04754 24885 ft 498 kts 102°
2026-05-06 11:47 29.91313 -95.00813 24883 ft 498 kts 102°
2026-05-06 11:48 29.90795 -94.96855 24885 ft 498 kts 102°
2026-05-06 11:48 29.90277 -94.92908 24888 ft 498 kts 102°
2026-05-06 11:48 29.89758 -94.88959 24885 ft 498 kts 102°
2026-05-06 11:48 29.89236 -94.85004 24887 ft 499 kts 102°
2026-05-06 11:49 29.88712 -94.81036 24893 ft 499 kts 102°
2026-05-06 11:49 29.88187 -94.77084 24889 ft 499 kts 102°
2026-05-06 11:49 29.87664 -94.73147 24893 ft 498 kts 102°
2026-05-06 11:49 29.87135 -94.69178 24891 ft 498 kts 102°
2026-05-06 11:50 29.86610 -94.65238 24893 ft 498 kts 102°
2026-05-06 11:50 29.86081 -94.61286 24892 ft 498 kts 102°
2026-05-06 11:50 29.85556 -94.57377 24890 ft 499 kts 102°
2026-05-06 11:50 29.85025 -94.53440 24896 ft 499 kts 102°
2026-05-06 11:51 29.84415 -94.49512 24885 ft 495 kts 108°
2026-05-06 11:51 29.83417 -94.45741 24892 ft 493 kts 113°
2026-05-06 11:51 29.82261 -94.42028 24896 ft 492 kts 115°
2026-05-06 11:51 29.81025 -94.38317 24897 ft 491 kts 116°
2026-05-06 11:52 29.79762 -94.34661 24894 ft 490 kts 116°
2026-05-06 11:52 29.78480 -94.31025 24895 ft 490 kts 117°
2026-05-06 11:52 29.77170 -94.27351 24891 ft 490 kts 117°
2026-05-06 11:52 29.75881 -94.23761 24893 ft 491 kts 117°
2026-05-06 11:53 29.74574 -94.20137 24889 ft 491 kts 117°
2026-05-06 11:53 29.73262 -94.16506 24886 ft 490 kts 117°
2026-05-06 11:53 29.71953 -94.12889 24889 ft 490 kts 117°
2026-05-06 11:53 29.70639 -94.09255 24885 ft 490 kts 117°
2026-05-06 11:54 29.69167 -94.05755 24881 ft 480 kts 129°
2026-05-06 11:54 29.66960 -94.02955 24892 ft 469 kts 144°
2026-05-06 11:54 29.64494 -94.00518 24900 ft 468 kts 147°
2026-05-06 11:54 29.61956 -93.98190 24900 ft 465 kts 149°
2026-05-06 11:55 29.59394 -93.95923 24900 ft 464 kts 149°
2026-05-06 11:55 29.56821 -93.93689 24897 ft 463 kts 150°
2026-05-06 11:55 29.54239 -93.91470 24898 ft 464 kts 150°
2026-05-06 11:55 29.51646 -93.89255 24900 ft 464 kts 150°
2026-05-06 11:56 29.49079 -93.87067 24895 ft 464 kts 150°
2026-05-06 11:56 29.46480 -93.84856 24899 ft 464 kts 150°
2026-05-06 11:56 29.43886 -93.82651 24895 ft 464 kts 150°
2026-05-06 11:56 29.41296 -93.80447 24892 ft 464 kts 150°
2026-05-06 11:57 29.38705 -93.78245 24898 ft 464 kts 150°
2026-05-06 11:57 29.36102 -93.76034 24898 ft 464 kts 150°
2026-05-06 11:57 29.33499 -93.73823 24895 ft 465 kts 150°
2026-05-06 11:57 29.30903 -93.71619 24897 ft 465 kts 150°
2026-05-06 11:58 29.28303 -93.69413 24901 ft 465 kts 150°
2026-05-06 11:58 29.25738 -93.67236 24900 ft 464 kts 150°
2026-05-06 11:58 29.23142 -93.65033 24899 ft 464 kts 150°
2026-05-06 11:58 29.20542 -93.62828 24898 ft 464 kts 150°
2026-05-06 11:59 29.17944 -93.60626 24901 ft 465 kts 150°
2026-05-06 11:59 29.15341 -93.58422 24903 ft 465 kts 150°
2026-05-06 11:59 29.12733 -93.56213 24902 ft 465 kts 150°
2026-05-06 11:59 29.10131 -93.54011 24898 ft 465 kts 150°
2026-05-06 12:00 29.07531 -93.51811 24905 ft 464 kts 150°
2026-05-06 12:00 29.04931 -93.49613 24906 ft 465 kts 150°
2026-05-06 12:00 29.02339 -93.47423 24903 ft 465 kts 150°
2026-05-06 12:00 28.99731 -93.45220 24906 ft 465 kts 150°
2026-05-06 12:01 28.97163 -93.43052 24905 ft 465 kts 150°
2026-05-06 12:01 28.94561 -93.40856 24904 ft 465 kts 150°
2026-05-06 12:01 28.91958 -93.38660 24908 ft 465 kts 150°
2026-05-06 12:01 28.89358 -93.36470 24908 ft 465 kts 150°
2026-05-06 12:02 28.86752 -93.34282 24906 ft 465 kts 150°
2026-05-06 12:02 28.84143 -93.32094 24907 ft 465 kts 150°
2026-05-06 12:02 28.81534 -93.29907 24906 ft 465 kts 150°
2026-05-06 12:02 28.78917 -93.27715 24907 ft 465 kts 150°
2026-05-06 12:03 28.76309 -93.25532 24910 ft 465 kts 150°
2026-05-06 12:03 28.73695 -93.23344 24910 ft 466 kts 150°
2026-05-06 12:03 28.71080 -93.21156 24912 ft 466 kts 150°
2026-05-06 12:03 28.68467 -93.18972 24917 ft 466 kts 150°
2026-05-06 12:04 28.65886 -93.16815 24917 ft 466 kts 150°
2026-05-06 12:04 28.63273 -93.14632 24915 ft 466 kts 150°
2026-05-06 12:04 28.60625 -93.12421 24917 ft 466 kts 150°
2026-05-06 12:04 28.58008 -93.10237 24914 ft 466 kts 150°
2026-05-06 12:05 28.55428 -93.08084 24915 ft 467 kts 150°
2026-05-06 12:05 28.52810 -93.05902 24917 ft 467 kts 150°
2026-05-06 12:05 28.50184 -93.03713 24919 ft 467 kts 150°
2026-05-06 12:05 28.47565 -93.01530 24917 ft 467 kts 150°
2026-05-06 12:06 28.44942 -92.99347 24920 ft 467 kts 150°
2026-05-06 12:06 28.42316 -92.97161 24919 ft 467 kts 150°
2026-05-06 12:06 28.39696 -92.94980 24923 ft 467 kts 150°
2026-05-06 12:06 28.37075 -92.92801 24920 ft 467 kts 150°
2026-05-06 12:07 28.34451 -92.90621 24923 ft 467 kts 150°
2026-05-06 12:07 28.31854 -92.88463 24921 ft 468 kts 149°
2026-05-06 12:07 28.29195 -92.86256 24920 ft 468 kts 149°
2026-05-06 12:07 28.26597 -92.84101 24924 ft 468 kts 149°
2026-05-06 12:08 28.23970 -92.81926 24920 ft 468 kts 149°
2026-05-06 12:08 28.21337 -92.79748 24921 ft 468 kts 149°
2026-05-06 12:08 28.18706 -92.77571 24922 ft 468 kts 149°
2026-05-06 12:08 28.16077 -92.75398 24923 ft 468 kts 149°
2026-05-06 12:09 28.13437 -92.73215 24923 ft 468 kts 149°
2026-05-06 12:09 28.10803 -92.71041 24920 ft 468 kts 149°
2026-05-06 12:09 28.08167 -92.68870 24924 ft 468 kts 149°
2026-05-06 12:09 28.05524 -92.66695 24918 ft 468 kts 149°
2026-05-06 12:10 28.02892 -92.64529 24924 ft 468 kts 149°
2026-05-06 12:10 28.00254 -92.62361 24919 ft 468 kts 149°
2026-05-06 12:10 27.97650 -92.60222 24919 ft 468 kts 149°
2026-05-06 12:10 27.95011 -92.58054 24916 ft 468 kts 149°
2026-05-06 12:11 27.92380 -92.55894 24920 ft 468 kts 149°
2026-05-06 12:11 27.89751 -92.53736 24915 ft 468 kts 149°
2026-05-06 12:11 27.87112 -92.51571 24928 ft 467 kts 149°
2026-05-06 12:11 27.84479 -92.49413 24922 ft 468 kts 149°
2026-05-06 12:12 27.81844 -92.47254 24922 ft 468 kts 149°
2026-05-06 12:12 27.79206 -92.45095 24926 ft 468 kts 149°
2026-05-06 12:12 27.76575 -92.42942 24923 ft 468 kts 149°
2026-05-06 12:12 27.73943 -92.40788 24916 ft 467 kts 149°
2026-05-06 12:13 27.71308 -92.38633 24926 ft 467 kts 149°
2026-05-06 12:13 27.68675 -92.36481 24926 ft 467 kts 149°
2026-05-06 12:13 27.66078 -92.34360 24924 ft 467 kts 149°
2026-05-06 12:13 27.63449 -92.32213 24926 ft 467 kts 149°
2026-05-06 12:14 27.60821 -92.30069 24928 ft 467 kts 149°
2026-05-06 12:14 27.58189 -92.27924 24926 ft 467 kts 149°
2026-05-06 12:14 27.55554 -92.25777 24922 ft 467 kts 149°
2026-05-06 12:14 27.52923 -92.23633 24921 ft 466 kts 149°
2026-05-06 12:15 27.50295 -92.21493 24924 ft 466 kts 149°
2026-05-06 12:15 27.47665 -92.19353 24926 ft 466 kts 149°
2026-05-06 12:15 27.45029 -92.17210 24926 ft 466 kts 149°
2026-05-06 12:15 27.42400 -92.15073 24925 ft 466 kts 149°
2026-05-06 12:16 27.39805 -92.12965 24926 ft 466 kts 149°
2026-05-06 12:16 27.37174 -92.10829 24924 ft 466 kts 149°
2026-05-06 12:16 27.34537 -92.08689 24927 ft 465 kts 149°
2026-05-06 12:16 27.31902 -92.06553 24925 ft 465 kts 148°
2026-05-06 12:17 27.29274 -92.04422 24926 ft 465 kts 148°
2026-05-06 12:17 27.26682 -92.02323 24923 ft 465 kts 148°
2026-05-06 12:17 27.24053 -92.00193 24923 ft 465 kts 148°
2026-05-06 12:17 27.21426 -91.98067 24924 ft 465 kts 148°
2026-05-06 12:18 27.18801 -91.95943 24924 ft 465 kts 148°
2026-05-06 12:18 27.16171 -91.93821 24923 ft 464 kts 148°
2026-05-06 12:18 27.13550 -91.91709 24924 ft 464 kts 148°
2026-05-06 12:18 27.10914 -91.89588 24924 ft 464 kts 148°
2026-05-06 12:19 27.08286 -91.87473 24924 ft 464 kts 148°
2026-05-06 12:19 27.05658 -91.85360 24925 ft 464 kts 148°
2026-05-06 12:19 27.03035 -91.83251 24922 ft 464 kts 148°
2026-05-06 12:19 27.00415 -91.81146 24923 ft 463 kts 148°
2026-05-06 12:20 26.97799 -91.79045 24923 ft 464 kts 148°
2026-05-06 12:20 26.95207 -91.76965 24924 ft 464 kts 148°
2026-05-06 12:20 26.92583 -91.74859 24927 ft 464 kts 148°
2026-05-06 12:20 26.89955 -91.72752 24926 ft 463 kts 148°
2026-05-06 12:21 26.87333 -91.70649 24927 ft 463 kts 148°
2026-05-06 12:21 26.84712 -91.68548 24925 ft 462 kts 148°
2026-05-06 12:21 26.82095 -91.66452 24927 ft 462 kts 148°
2026-05-06 12:21 26.79481 -91.64359 24923 ft 462 kts 148°
2026-05-06 12:22 26.76866 -91.62269 24924 ft 462 kts 148°
2026-05-06 12:22 26.74248 -91.60175 24925 ft 462 kts 148°
2026-05-06 12:22 26.71636 -91.58089 24925 ft 462 kts 148°
2026-05-06 12:22 26.69050 -91.56024 24926 ft 461 kts 148°
2026-05-06 12:23 26.66436 -91.53938 24925 ft 461 kts 148°
2026-05-06 12:23 26.63825 -91.51855 24925 ft 461 kts 148°
2026-05-06 12:23 26.61212 -91.49772 24926 ft 461 kts 148°
2026-05-06 12:23 26.58601 -91.47692 24929 ft 461 kts 148°
2026-05-06 12:24 26.55984 -91.45608 24929 ft 461 kts 148°
2026-05-06 12:24 26.53371 -91.43528 24929 ft 461 kts 148°
2026-05-06 12:24 26.50762 -91.41452 24926 ft 461 kts 148°
2026-05-06 12:24 26.48148 -91.39374 24924 ft 460 kts 148°
2026-05-06 12:25 26.45541 -91.37302 24927 ft 460 kts 148°
2026-05-06 12:25 26.42936 -91.35234 24927 ft 460 kts 148°
2026-05-06 12:25 26.40323 -91.33159 24929 ft 460 kts 148°
2026-05-06 12:25 26.37717 -91.31091 24928 ft 460 kts 148°
2026-05-06 12:26 26.35130 -91.29040 24930 ft 460 kts 148°
2026-05-06 12:26 26.32528 -91.26977 24927 ft 460 kts 148°
2026-05-06 12:26 26.29919 -91.24912 24928 ft 460 kts 148°
2026-05-06 12:26 26.27308 -91.22845 24928 ft 460 kts 148°
2026-05-06 12:27 26.24698 -91.20781 24926 ft 459 kts 148°
2026-05-06 12:27 26.22088 -91.18717 24927 ft 459 kts 148°
2026-05-06 12:27 26.20367 -91.17358 24927 ft 459 kts 148°
2026-05-06 12:27 26.17753 -91.15292 24929 ft 459 kts 148°
2026-05-06 12:28 26.15145 -91.13233 24931 ft 459 kts 147°
2026-05-06 12:28 26.12536 -91.11175 24929 ft 459 kts 148°
2026-05-06 12:28 26.09087 -91.08454 24930 ft 459 kts 147°
2026-05-06 12:28 26.07326 -91.07066 24929 ft 459 kts 148°
2026-05-06 12:29 26.04715 -91.05009 24929 ft 459 kts 148°
2026-05-06 12:29 26.02144 -91.02984 24928 ft 459 kts 147°
2026-05-06 12:29 25.99541 -91.00937 24931 ft 459 kts 147°
2026-05-06 12:29 25.96927 -90.98882 24934 ft 459 kts 147°
2026-05-06 12:30 25.94316 -90.96829 24931 ft 459 kts 147°
2026-05-06 12:30 25.91703 -90.94776 24931 ft 459 kts 147°
2026-05-06 12:30 25.89095 -90.92728 24935 ft 458 kts 147°
2026-05-06 12:30 25.86496 -90.90688 24933 ft 458 kts 147°
2026-05-06 12:31 25.83889 -90.88644 24934 ft 458 kts 148°
2026-05-06 12:31 25.81286 -90.86603 24934 ft 458 kts 147°
2026-05-06 12:31 25.78679 -90.84560 24934 ft 458 kts 147°
2026-05-06 12:31 25.76077 -90.82523 24935 ft 458 kts 147°
2026-05-06 12:32 25.73505 -90.80510 24936 ft 458 kts 147°
2026-05-06 12:32 25.70866 -90.78446 24938 ft 458 kts 147°
2026-05-06 12:32 25.68268 -90.76416 24938 ft 458 kts 147°
2026-05-06 12:32 25.65665 -90.74382 24936 ft 458 kts 147°
2026-05-06 12:33 25.63056 -90.72345 24938 ft 458 kts 147°
2026-05-06 12:33 25.60481 -90.70334 24940 ft 458 kts 147°
2026-05-06 12:33 25.57876 -90.68302 24939 ft 457 kts 147°
2026-05-06 12:33 25.55273 -90.66275 24940 ft 457 kts 147°
2026-05-06 12:34 25.52668 -90.64246 24942 ft 457 kts 147°
2026-05-06 12:34 25.50066 -90.62220 24944 ft 457 kts 147°
2026-05-06 12:34 25.47454 -90.60188 24942 ft 457 kts 147°
2026-05-06 12:34 25.44855 -90.58167 24941 ft 457 kts 147°
2026-05-06 12:35 25.42248 -90.56139 24942 ft 457 kts 147°
2026-05-06 12:35 25.39645 -90.54115 24942 ft 457 kts 147°
2026-05-06 12:35 25.37073 -90.52118 24944 ft 457 kts 147°
2026-05-06 12:35 25.34471 -90.50099 24944 ft 457 kts 147°
2026-05-06 12:36 25.31866 -90.48078 24942 ft 457 kts 147°
2026-05-06 12:36 25.29260 -90.46057 24943 ft 457 kts 147°
2026-05-06 12:36 25.26654 -90.44037 24947 ft 457 kts 147°
2026-05-06 12:36 25.24048 -90.42019 24959 ft 458 kts 147°
2026-05-06 12:37 25.21436 -90.39996 24950 ft 457 kts 147°
2026-05-06 12:37 25.18829 -90.37979 24952 ft 457 kts 147°
2026-05-06 12:37 25.16228 -90.35967 24958 ft 457 kts 147°
2026-05-06 12:37 25.13614 -90.33948 24944 ft 457 kts 147°
2026-05-06 12:38 25.11010 -90.31936 24945 ft 457 kts 147°
2026-05-06 12:38 25.08398 -90.29918 24958 ft 457 kts 147°
2026-05-06 12:38 25.05792 -90.27907 24946 ft 457 kts 147°
2026-05-06 12:38 25.03224 -90.25928 24952 ft 458 kts 147°
2026-05-06 12:39 25.00614 -90.23916 24961 ft 458 kts 147°
2026-05-06 12:39 24.97997 -90.21899 24948 ft 458 kts 147°
2026-05-06 12:39 24.95384 -90.19885 24949 ft 457 kts 147°
2026-05-06 12:39 24.92777 -90.17879 24949 ft 457 kts 147°
2026-05-06 12:40 24.90165 -90.15869 24952 ft 458 kts 147°
2026-05-06 12:40 24.87550 -90.13858 24963 ft 458 kts 147°
2026-05-06 12:40 24.84928 -90.11845 24953 ft 458 kts 147°
2026-05-06 12:40 24.82317 -90.09840 24951 ft 458 kts 147°
2026-05-06 12:41 24.79736 -90.07860 24957 ft 458 kts 147°
2026-05-06 12:41 24.77127 -90.05857 24951 ft 458 kts 147°
2026-05-06 12:41 24.74511 -90.03850 24960 ft 458 kts 147°
2026-05-06 12:41 24.71892 -90.01842 24960 ft 458 kts 147°
2026-05-06 12:42 24.69277 -89.99839 24960 ft 458 kts 147°
2026-05-06 12:42 24.66654 -89.97832 24964 ft 458 kts 147°
2026-05-06 12:42 24.64034 -89.95827 24964 ft 458 kts 147°
2026-05-06 12:42 24.61416 -89.93824 24963 ft 457 kts 147°
2026-05-06 12:43 24.58808 -89.91829 24965 ft 457 kts 147°
2026-05-06 12:43 24.56203 -89.89837 24959 ft 457 kts 147°
2026-05-06 12:43 24.53592 -89.87843 24962 ft 457 kts 147°
2026-05-06 12:43 24.50976 -89.85844 24960 ft 457 kts 147°
2026-05-06 12:44 24.48365 -89.83850 24965 ft 457 kts 147°
2026-05-06 12:44 24.45754 -89.81861 24969 ft 457 kts 147°
2026-05-06 12:44 24.43175 -89.79897 24967 ft 456 kts 147°
2026-05-06 12:44 24.40564 -89.77908 24970 ft 456 kts 147°
2026-05-06 12:45 24.37952 -89.75920 24977 ft 456 kts 147°
2026-05-06 12:45 24.35331 -89.73926 24970 ft 456 kts 147°
2026-05-06 12:45 24.30154 -89.69989 24970 ft 456 kts 147°
2026-05-06 12:46 24.27544 -89.68004 24972 ft 456 kts 147°
2026-05-06 12:46 24.24941 -89.66027 24974 ft 455 kts 146°
2026-05-06 12:46 24.22339 -89.64052 24969 ft 455 kts 146°
2026-05-06 12:46 24.19729 -89.62071 24974 ft 455 kts 146°
2026-05-06 12:47 24.17131 -89.60100 24969 ft 455 kts 146°
2026-05-06 12:47 24.14532 -89.58129 24972 ft 454 kts 146°
2026-05-06 12:47 24.11930 -89.56156 24970 ft 455 kts 146°
2026-05-06 12:47 24.09355 -89.54205 24976 ft 454 kts 146°
2026-05-06 12:48 24.06757 -89.52238 24973 ft 453 kts 146°
2026-05-06 12:48 24.04169 -89.50277 24977 ft 453 kts 146°
2026-05-06 12:48 24.01570 -89.48310 24970 ft 453 kts 146°
2026-05-06 12:48 23.98979 -89.46349 24978 ft 453 kts 146°
2026-05-06 12:49 23.96386 -89.44386 24977 ft 453 kts 146°
2026-05-06 12:49 23.93788 -89.42422 24979 ft 453 kts 146°
2026-05-06 12:49 23.91198 -89.40467 24978 ft 453 kts 146°
2026-05-06 12:49 23.88601 -89.38509 24982 ft 453 kts 146°
2026-05-06 12:50 23.86005 -89.36551 24983 ft 453 kts 146°
2026-05-06 12:50 23.83406 -89.34595 24981 ft 453 kts 146°
2026-05-06 12:50 23.80843 -89.32665 24985 ft 453 kts 146°
2026-05-06 12:50 23.78249 -89.30711 24984 ft 453 kts 146°
2026-05-06 12:51 23.75656 -89.28759 24985 ft 453 kts 146°
2026-05-06 12:51 23.73057 -89.26804 24984 ft 452 kts 146°
2026-05-06 12:51 23.70466 -89.24855 24986 ft 452 kts 146°
2026-05-06 12:51 23.67879 -89.22910 24986 ft 452 kts 146°
2026-05-06 12:52 23.65284 -89.20958 24987 ft 452 kts 146°
2026-05-06 12:52 23.62692 -89.19009 24988 ft 452 kts 146°
2026-05-06 12:52 23.60101 -89.17063 24989 ft 452 kts 146°
2026-05-06 12:52 23.57510 -89.15117 24985 ft 453 kts 146°
2026-05-06 12:53 23.54916 -89.13169 24989 ft 453 kts 146°
2026-05-06 12:53 23.52325 -89.11224 24988 ft 452 kts 146°
2026-05-06 12:53 23.49730 -89.09281 24989 ft 452 kts 146°
2026-05-06 12:53 23.47132 -89.07338 24992 ft 452 kts 146°
2026-05-06 12:54 23.44541 -89.05397 24992 ft 452 kts 146°
2026-05-06 12:54 23.41945 -89.03455 24992 ft 452 kts 146°
2026-05-06 12:54 23.39386 -89.01541 24992 ft 452 kts 146°
2026-05-06 12:54 23.36782 -88.99596 24993 ft 452 kts 146°
2026-05-06 12:55 23.34185 -88.97655 24990 ft 452 kts 146°
2026-05-06 12:55 23.31591 -88.95718 24990 ft 453 kts 146°
2026-05-06 12:55 23.28990 -88.93777 24990 ft 453 kts 146°
2026-05-06 12:55 23.26392 -88.91838 24989 ft 453 kts 146°
2026-05-06 12:56 23.23790 -88.89895 24991 ft 453 kts 146°
2026-05-06 12:56 23.21189 -88.87955 24991 ft 453 kts 146°
2026-05-06 12:56 23.18597 -88.86022 24993 ft 453 kts 146°
2026-05-06 12:56 23.16021 -88.84102 24993 ft 453 kts 146°
2026-05-06 12:57 23.13423 -88.82165 24995 ft 454 kts 146°
2026-05-06 12:57 23.10817 -88.80225 24995 ft 454 kts 146°
2026-05-06 12:57 23.08207 -88.78284 24994 ft 453 kts 146°
2026-05-06 12:57 23.05597 -88.76345 24995 ft 453 kts 146°
2026-05-06 12:58 23.02993 -88.74412 24994 ft 454 kts 146°
2026-05-06 12:58 23.00385 -88.72476 24998 ft 454 kts 146°
2026-05-06 12:58 22.97780 -88.70543 24997 ft 454 kts 146°
2026-05-06 12:58 22.95168 -88.68605 24998 ft 454 kts 146°
2026-05-06 12:59 22.92592 -88.66694 24998 ft 454 kts 145°
2026-05-06 12:59 22.89985 -88.64762 24998 ft 454 kts 145°
2026-05-06 12:59 22.87343 -88.62803 25000 ft 454 kts 145°
2026-05-06 12:59 22.84735 -88.60869 25003 ft 454 kts 145°
2026-05-06 13:00 22.82121 -88.58932 25000 ft 454 kts 145°
2026-05-06 13:00 22.79552 -88.57028 25001 ft 454 kts 145°
2026-05-06 13:00 22.76934 -88.55093 25001 ft 454 kts 146°
2026-05-06 13:00 22.74318 -88.53161 25000 ft 454 kts 146°
2026-05-06 13:01 22.71708 -88.51236 24999 ft 454 kts 146°
2026-05-06 13:01 22.69116 -88.49283 25000 ft 454 kts 143°
2026-05-06 13:01 22.66651 -88.47133 25000 ft 454 kts 140°
2026-05-06 13:01 22.64257 -88.44903 25002 ft 455 kts 138°
2026-05-06 13:02 22.61890 -88.42628 25001 ft 454 kts 137°
2026-05-06 13:02 22.59541 -88.40335 25005 ft 455 kts 137°
2026-05-06 13:02 22.57197 -88.38024 25004 ft 454 kts 137°
2026-05-06 13:02 22.54862 -88.35719 25006 ft 455 kts 137°
2026-05-06 13:03 22.52528 -88.33399 25005 ft 455 kts 137°
2026-05-06 13:03 22.50203 -88.31083 25005 ft 455 kts 137°
2026-05-06 13:03 22.47876 -88.28766 25009 ft 455 kts 137°
2026-05-06 13:03 22.45540 -88.26439 25003 ft 455 kts 137°
2026-05-06 13:04 22.43238 -88.24146 25013 ft 455 kts 136°
2026-05-06 13:04 22.40914 -88.21833 25010 ft 455 kts 137°
2026-05-06 13:04 22.38584 -88.19514 25011 ft 455 kts 137°
2026-05-06 13:04 22.36255 -88.17197 25013 ft 455 kts 137°
2026-05-06 13:05 22.33926 -88.14880 25010 ft 455 kts 136°
2026-05-06 13:05 22.31589 -88.12557 25008 ft 455 kts 136°
2026-05-06 13:05 22.29259 -88.10242 25009 ft 455 kts 136°
2026-05-06 13:05 22.26928 -88.07926 25010 ft 455 kts 136°
2026-05-06 13:06 22.24593 -88.05607 25010 ft 455 kts 136°
2026-05-06 13:06 22.22262 -88.03294 25012 ft 455 kts 136°
2026-05-06 13:06 22.19924 -88.00975 25009 ft 456 kts 137°
2026-05-06 13:06 22.17624 -87.98694 25010 ft 456 kts 136°
2026-05-06 13:07 22.15259 -87.96349 25012 ft 456 kts 136°
2026-05-06 13:07 22.12958 -87.94070 25010 ft 456 kts 136°
2026-05-06 13:07 22.10611 -87.91746 25010 ft 456 kts 136°
2026-05-06 13:07 22.08277 -87.89437 25012 ft 456 kts 136°
2026-05-06 13:08 22.05936 -87.87122 25012 ft 456 kts 136°
2026-05-06 13:08 22.03595 -87.84809 25012 ft 456 kts 136°
2026-05-06 13:08 22.01261 -87.82502 25014 ft 455 kts 136°
2026-05-06 13:08 21.98926 -87.80195 25017 ft 455 kts 136°
2026-05-06 13:09 21.96618 -87.77915 25016 ft 455 kts 136°
2026-05-06 13:09 21.94280 -87.75606 25013 ft 455 kts 136°
2026-05-06 13:09 21.91946 -87.73302 25013 ft 455 kts 136°
2026-05-06 13:09 21.89618 -87.71004 25016 ft 455 kts 136°
2026-05-06 13:10 21.87279 -87.68700 25019 ft 455 kts 136°
2026-05-06 13:10 21.84940 -87.66397 25017 ft 455 kts 136°
2026-05-06 13:10 21.82605 -87.64099 25018 ft 454 kts 136°
2026-05-06 13:10 21.80273 -87.61805 25016 ft 454 kts 136°
2026-05-06 13:11 21.77937 -87.59508 25020 ft 454 kts 136°
2026-05-06 13:11 21.75605 -87.57217 25019 ft 454 kts 136°
2026-05-06 13:11 21.73274 -87.54925 25020 ft 454 kts 136°
2026-05-06 13:11 21.70944 -87.52636 25017 ft 453 kts 136°
2026-05-06 13:12 21.68644 -87.50377 25023 ft 453 kts 136°
2026-05-06 13:12 21.66313 -87.48090 25022 ft 453 kts 136°
2026-05-06 13:12 21.63985 -87.45809 25022 ft 453 kts 136°
2026-05-06 13:12 21.61651 -87.43522 25023 ft 453 kts 136°
2026-05-06 13:13 21.59323 -87.41243 25026 ft 453 kts 136°
2026-05-06 13:13 21.56998 -87.38968 25025 ft 452 kts 136°
2026-05-06 13:13 21.54663 -87.36683 25025 ft 453 kts 136°
2026-05-06 13:13 21.52340 -87.34412 25026 ft 453 kts 136°
2026-05-06 13:14 21.50008 -87.32134 25030 ft 452 kts 136°
2026-05-06 13:14 21.47689 -87.29869 25028 ft 452 kts 136°
2026-05-06 13:14 21.46143 -87.28357 25029 ft 452 kts 136°
2026-05-06 13:14 21.43055 -87.25341 25033 ft 452 kts 136°
2026-05-06 13:15 21.41482 -87.23807 25034 ft 452 kts 136°
2026-05-06 13:15 21.38403 -87.20802 25034 ft 452 kts 136°
2026-05-06 13:15 21.36080 -87.18535 25033 ft 452 kts 136°
2026-05-06 13:15 21.33750 -87.16264 25034 ft 452 kts 136°
2026-05-06 13:16 21.31423 -87.13994 25032 ft 452 kts 136°
2026-05-06 13:16 21.29847 -87.12456 25032 ft 452 kts 136°
2026-05-06 13:16 21.27550 -87.10219 25034 ft 452 kts 136°
2026-05-06 13:16 21.25222 -87.07953 25034 ft 452 kts 136°
2026-05-06 13:17 21.22892 -87.05685 25034 ft 452 kts 136°
2026-05-06 13:17 21.20561 -87.03416 25036 ft 452 kts 136°
2026-05-06 13:17 21.18240 -87.01158 25036 ft 452 kts 136°
2026-05-06 13:17 21.15911 -86.98894 25035 ft 452 kts 136°
2026-05-06 13:18 21.13585 -86.96632 25035 ft 452 kts 136°
2026-05-06 13:18 21.11251 -86.94365 25037 ft 452 kts 136°
2026-05-06 13:18 21.08925 -86.92106 25034 ft 452 kts 136°
2026-05-06 13:18 21.06590 -86.89839 25034 ft 452 kts 136°
2026-05-06 13:19 21.04294 -86.87609 25038 ft 452 kts 136°
2026-05-06 13:19 21.01964 -86.85347 25036 ft 451 kts 136°
2026-05-06 13:19 20.99639 -86.83089 25036 ft 452 kts 136°
2026-05-06 13:19 20.97310 -86.80829 25038 ft 452 kts 136°
2026-05-06 13:20 20.94978 -86.78567 25036 ft 452 kts 136°
2026-05-06 13:20 20.92647 -86.76305 25037 ft 452 kts 136°
2026-05-06 13:20 20.90321 -86.74047 25036 ft 452 kts 136°
2026-05-06 13:20 20.87992 -86.71789 25037 ft 452 kts 136°
2026-05-06 13:21 20.85669 -86.69536 25036 ft 452 kts 136°
2026-05-06 13:21 20.83340 -86.67278 25036 ft 452 kts 136°
2026-05-06 13:21 20.81000 -86.65010 25037 ft 452 kts 136°
2026-05-06 13:21 20.78706 -86.62786 25036 ft 452 kts 136°
2026-05-06 13:22 20.76382 -86.60535 25037 ft 451 kts 136°
2026-05-06 13:22 20.74053 -86.58280 25038 ft 451 kts 136°
2026-05-06 13:22 20.71731 -86.56031 25036 ft 451 kts 136°
2026-05-06 13:22 20.69398 -86.53774 25037 ft 451 kts 136°
2026-05-06 13:23 20.67067 -86.51520 25034 ft 451 kts 136°
2026-05-06 13:23 20.64741 -86.49271 25034 ft 451 kts 136°
2026-05-06 13:23 20.62412 -86.47019 25035 ft 451 kts 136°
2026-05-06 13:23 20.60082 -86.44767 25033 ft 451 kts 136°
2026-05-06 13:24 20.57780 -86.42544 25034 ft 451 kts 136°
2026-05-06 13:24 20.55420 -86.40265 25034 ft 451 kts 136°
2026-05-06 13:24 20.53089 -86.38016 25030 ft 451 kts 136°
2026-05-06 13:24 20.50791 -86.35799 25031 ft 451 kts 136°
2026-05-06 13:25 20.48461 -86.33551 25032 ft 451 kts 136°
2026-05-06 13:25 20.46136 -86.31308 25032 ft 451 kts 136°
2026-05-06 13:25 20.43805 -86.29061 25031 ft 451 kts 136°
2026-05-06 13:25 20.41474 -86.26814 25031 ft 451 kts 136°
2026-05-06 13:26 20.39147 -86.24571 25033 ft 451 kts 136°
2026-05-06 13:26 20.36817 -86.22329 25029 ft 451 kts 136°
2026-05-06 13:26 20.34486 -86.20088 25028 ft 451 kts 136°
2026-05-06 13:26 20.32149 -86.17844 25030 ft 451 kts 136°
2026-05-06 13:27 20.29848 -86.15636 25030 ft 451 kts 136°
2026-05-06 13:27 20.27516 -86.13397 25028 ft 451 kts 136°
2026-05-06 13:27 20.25187 -86.11163 25030 ft 451 kts 136°
2026-05-06 13:27 20.22853 -86.08925 25029 ft 451 kts 136°
2026-05-06 13:28 20.20519 -86.06688 25030 ft 451 kts 136°
2026-05-06 13:28 20.18186 -86.04451 25028 ft 451 kts 136°
2026-05-06 13:28 20.15852 -86.02215 25027 ft 451 kts 136°
2026-05-06 13:28 20.13517 -85.99977 25027 ft 451 kts 136°
2026-05-06 13:29 20.11182 -85.97739 25025 ft 451 kts 136°
2026-05-06 13:29 20.08845 -85.95502 25027 ft 451 kts 136°
2026-05-06 13:29 20.06509 -85.93267 25024 ft 451 kts 136°
2026-05-06 13:29 20.04201 -85.91063 25026 ft 452 kts 136°
2026-05-06 13:30 20.01858 -85.88840 25024 ft 451 kts 136°
2026-05-06 13:30 19.99508 -85.86616 25028 ft 452 kts 136°
2026-05-06 13:30 19.97159 -85.84397 25027 ft 452 kts 136°
2026-05-06 13:30 19.94809 -85.82178 25026 ft 452 kts 136°
2026-05-06 13:31 19.92460 -85.79963 25028 ft 452 kts 136°
2026-05-06 13:31 19.90110 -85.77747 25028 ft 452 kts 136°
2026-05-06 13:31 19.87758 -85.75532 25026 ft 452 kts 136°
2026-05-06 13:31 19.85400 -85.73311 25027 ft 452 kts 136°
2026-05-06 13:32 19.83048 -85.71096 25026 ft 452 kts 136°
2026-05-06 13:32 19.80699 -85.68884 25025 ft 452 kts 136°
2026-05-06 13:32 19.78344 -85.66669 25028 ft 452 kts 136°
2026-05-06 13:32 19.75980 -85.64445 25028 ft 452 kts 136°
2026-05-06 13:33 19.73653 -85.62258 25030 ft 453 kts 136°
2026-05-06 13:33 19.71293 -85.60040 25030 ft 453 kts 136°
2026-05-06 13:33 19.68938 -85.57827 25029 ft 453 kts 136°
2026-05-06 13:33 19.66580 -85.55613 25029 ft 452 kts 136°
2026-05-06 13:34 19.64219 -85.53396 25028 ft 453 kts 136°
2026-05-06 13:34 19.61853 -85.51177 25030 ft 453 kts 136°
2026-05-06 13:34 19.59492 -85.48961 25031 ft 453 kts 136°
2026-05-06 13:34 19.57132 -85.46748 25028 ft 453 kts 136°
2026-05-06 13:35 19.54766 -85.44530 25029 ft 453 kts 136°
2026-05-06 13:35 19.52400 -85.42315 25028 ft 453 kts 136°
2026-05-06 13:35 19.50039 -85.40104 25027 ft 453 kts 136°
2026-05-06 13:35 19.47702 -85.37916 25029 ft 453 kts 136°
2026-05-06 13:36 19.45339 -85.35704 25029 ft 453 kts 136°
2026-05-06 13:36 19.42969 -85.33488 25030 ft 454 kts 136°
2026-05-06 13:36 19.40603 -85.31276 25029 ft 454 kts 136°
2026-05-06 13:36 19.38231 -85.29058 25026 ft 454 kts 136°
2026-05-06 13:37 19.35867 -85.26848 25028 ft 454 kts 136°
2026-05-06 13:37 19.33493 -85.24631 25028 ft 454 kts 136°
2026-05-06 13:37 19.31118 -85.22414 25029 ft 454 kts 136°
2026-05-06 13:37 19.28737 -85.20193 25029 ft 454 kts 136°
2026-05-06 13:38 19.26364 -85.17980 25028 ft 455 kts 136°
2026-05-06 13:38 19.23986 -85.15762 25029 ft 455 kts 136°
2026-05-06 13:38 19.21640 -85.13575 25028 ft 455 kts 136°
2026-05-06 13:38 19.19261 -85.11359 25029 ft 455 kts 136°
2026-05-06 13:39 19.16884 -85.09145 25029 ft 455 kts 136°
2026-05-06 13:39 19.14506 -85.06932 25030 ft 455 kts 136°
2026-05-06 13:39 19.12126 -85.04717 25027 ft 455 kts 136°
2026-05-06 13:39 19.09750 -85.02507 25030 ft 455 kts 136°
2026-05-06 13:40 19.07369 -85.00293 25028 ft 456 kts 136°
2026-05-06 13:40 19.04986 -84.98077 25030 ft 456 kts 136°
2026-05-06 13:40 19.02603 -84.95863 25028 ft 456 kts 136°
2026-05-06 13:40 19.00215 -84.93645 25028 ft 456 kts 136°
2026-05-06 13:41 18.97824 -84.91426 25028 ft 456 kts 136°
2026-05-06 13:41 18.95468 -84.89240 25029 ft 456 kts 136°
2026-05-06 13:41 18.93082 -84.87026 25030 ft 456 kts 136°
2026-05-06 13:41 18.90695 -84.84812 25029 ft 457 kts 136°
2026-05-06 13:42 18.88310 -84.82601 25029 ft 457 kts 136°
2026-05-06 13:42 18.85918 -84.80384 25029 ft 457 kts 136°
2026-05-06 13:42 18.83523 -84.78167 25031 ft 457 kts 136°
2026-05-06 13:42 18.81138 -84.75959 25031 ft 457 kts 136°
2026-05-06 13:43 18.78745 -84.73743 25031 ft 457 kts 136°
2026-05-06 13:43 18.76355 -84.71532 25033 ft 457 kts 136°
2026-05-06 13:43 18.73960 -84.69318 25032 ft 458 kts 136°
2026-05-06 13:43 18.71562 -84.67102 25032 ft 458 kts 136°
2026-05-06 13:44 18.69169 -84.64890 25033 ft 458 kts 136°
2026-05-06 13:44 18.66772 -84.62675 25032 ft 457 kts 136°
2026-05-06 13:44 18.64379 -84.60464 25032 ft 457 kts 136°
2026-05-06 13:44 18.61983 -84.58251 25032 ft 458 kts 136°
2026-05-06 13:45 18.59587 -84.56040 25032 ft 458 kts 136°
2026-05-06 13:45 18.54806 -84.51596 25032 ft 458 kts 134°
2026-05-06 13:45 18.52561 -84.49285 25028 ft 456 kts 132°
2026-05-06 13:46 18.50344 -84.46893 25028 ft 456 kts 131°
2026-05-06 13:46 18.48144 -84.44470 25027 ft 456 kts 131°
2026-05-06 13:46 18.45959 -84.42036 25027 ft 457 kts 131°
2026-05-06 13:46 18.43782 -84.39599 25029 ft 457 kts 131°
2026-05-06 13:47 18.41610 -84.37158 25029 ft 456 kts 131°
2026-05-06 13:47 18.39442 -84.34719 25028 ft 456 kts 130°
2026-05-06 13:47 18.37277 -84.32281 25028 ft 456 kts 130°
2026-05-06 13:47 18.35109 -84.29838 25024 ft 456 kts 130°
2026-05-06 13:48 18.32946 -84.27402 25026 ft 456 kts 130°
2026-05-06 13:48 18.30801 -84.24986 25027 ft 456 kts 130°
2026-05-06 13:48 18.28635 -84.22545 25030 ft 456 kts 130°
2026-05-06 13:48 18.26463 -84.20099 25028 ft 456 kts 130°
2026-05-06 13:49 18.24292 -84.17655 25025 ft 456 kts 130°
2026-05-06 13:49 18.22129 -84.15219 25026 ft 456 kts 131°
2026-05-06 13:49 18.19963 -84.12782 25026 ft 455 kts 130°
2026-05-06 13:49 18.17798 -84.10348 25029 ft 455 kts 130°
2026-05-06 13:50 18.15635 -84.07916 25027 ft 455 kts 130°
2026-05-06 13:50 18.13499 -84.05514 25029 ft 455 kts 130°
2026-05-06 13:50 18.11332 -84.03079 25028 ft 455 kts 131°
2026-05-06 13:50 18.09174 -84.00654 25028 ft 455 kts 131°
2026-05-06 13:51 18.07013 -83.98227 25029 ft 455 kts 131°
2026-05-06 13:51 18.04846 -83.95795 25030 ft 455 kts 131°
2026-05-06 13:51 18.02683 -83.93369 25029 ft 455 kts 131°
2026-05-06 13:51 18.00514 -83.90937 25031 ft 454 kts 131°
2026-05-06 13:52 17.98362 -83.88523 25029 ft 454 kts 131°
2026-05-06 13:52 17.96197 -83.86098 25031 ft 453 kts 131°
2026-05-06 13:52 17.94070 -83.83716 25030 ft 453 kts 131°
2026-05-06 13:52 17.91904 -83.81289 25030 ft 453 kts 131°
2026-05-06 13:53 17.89746 -83.78873 25028 ft 453 kts 131°
2026-05-06 13:53 17.87584 -83.76453 25029 ft 454 kts 131°
2026-05-06 13:53 17.85425 -83.74038 25029 ft 453 kts 131°
2026-05-06 13:53 17.83263 -83.71620 25029 ft 453 kts 131°
2026-05-06 13:54 17.81110 -83.69214 25029 ft 453 kts 131°
2026-05-06 13:54 17.78952 -83.66802 25027 ft 452 kts 131°
2026-05-06 13:54 17.76797 -83.64395 25029 ft 452 kts 131°
2026-05-06 13:54 17.74641 -83.61987 25029 ft 452 kts 131°
2026-05-06 13:55 17.72488 -83.59583 25029 ft 453 kts 131°
2026-05-06 13:55 17.70353 -83.57201 25030 ft 453 kts 131°
2026-05-06 13:55 17.68197 -83.54796 25031 ft 453 kts 131°
2026-05-06 13:55 17.66038 -83.52390 25030 ft 452 kts 131°
2026-05-06 13:56 17.63883 -83.49987 25028 ft 452 kts 131°
2026-05-06 13:56 17.61726 -83.47586 25028 ft 452 kts 131°
2026-05-06 13:56 17.59572 -83.45186 25029 ft 452 kts 131°
2026-05-06 13:56 17.57408 -83.42778 25029 ft 452 kts 131°
2026-05-06 13:57 17.55248 -83.40374 25028 ft 452 kts 131°
2026-05-06 13:57 17.53094 -83.37978 25031 ft 452 kts 131°
2026-05-06 13:57 17.50956 -83.35600 25030 ft 452 kts 131°
2026-05-06 13:57 17.48800 -83.33204 25029 ft 452 kts 131°
2026-05-06 13:58 17.46649 -83.30813 25030 ft 452 kts 131°
2026-05-06 13:58 17.44488 -83.28412 25028 ft 452 kts 131°
2026-05-06 13:58 17.42335 -83.26022 25030 ft 451 kts 131°
2026-05-06 13:58 17.40179 -83.23629 25028 ft 451 kts 131°
2026-05-06 13:59 17.38023 -83.21237 25029 ft 451 kts 131°
2026-05-06 13:59 17.35863 -83.18843 25029 ft 451 kts 131°
2026-05-06 13:59 17.33708 -83.16454 25032 ft 451 kts 131°
2026-05-06 13:59 17.31551 -83.14062 25030 ft 451 kts 131°
2026-05-06 14:00 17.29399 -83.11677 25031 ft 451 kts 131°
2026-05-06 14:00 17.27242 -83.09289 25030 ft 451 kts 131°
2026-05-06 14:00 17.25113 -83.06931 25031 ft 451 kts 131°
2026-05-06 14:00 17.22955 -83.04543 25030 ft 451 kts 131°
2026-05-06 14:01 17.20801 -83.02161 25028 ft 451 kts 131°
2026-05-06 14:01 17.18641 -82.99772 25029 ft 451 kts 131°
2026-05-06 14:01 17.16488 -82.97392 25029 ft 451 kts 131°
2026-05-06 14:01 17.14335 -82.95013 25029 ft 450 kts 131°
2026-05-06 14:02 17.12909 -82.93438 25031 ft 450 kts 131°
2026-05-06 14:02 17.10752 -82.91056 25031 ft 450 kts 131°
2026-05-06 14:02 17.08600 -82.88680 25029 ft 450 kts 131°
2026-05-06 14:02 17.05740 -82.85525 25030 ft 450 kts 131°
2026-05-06 14:03 17.04282 -82.83917 25029 ft 450 kts 131°
2026-05-06 14:03 17.02127 -82.81540 25030 ft 450 kts 131°
2026-05-06 14:03 16.99970 -82.79162 25036 ft 450 kts 131°
2026-05-06 14:03 16.97845 -82.76819 25033 ft 450 kts 131°
2026-05-06 14:04 16.95690 -82.74444 25032 ft 450 kts 131°
2026-05-06 14:04 16.93533 -82.72069 25032 ft 450 kts 131°
2026-05-06 14:04 16.91377 -82.69696 25030 ft 450 kts 131°
2026-05-06 14:04 16.89220 -82.67322 25032 ft 450 kts 131°
2026-05-06 14:05 16.87067 -82.64953 25027 ft 450 kts 131°
2026-05-06 14:05 16.84909 -82.62579 25030 ft 450 kts 131°
2026-05-06 14:05 16.82750 -82.60205 25029 ft 450 kts 131°
2026-05-06 14:05 16.80591 -82.57832 25029 ft 450 kts 131°
2026-05-06 14:06 16.78431 -82.55460 25029 ft 450 kts 130°
2026-05-06 14:06 16.76275 -82.53093 25029 ft 450 kts 130°
2026-05-06 14:06 16.74141 -82.50751 25028 ft 450 kts 130°
2026-05-06 14:06 16.71987 -82.48386 25029 ft 450 kts 130°
2026-05-06 14:07 16.69825 -82.46013 25031 ft 450 kts 130°
2026-05-06 14:07 16.67667 -82.43645 25030 ft 450 kts 130°
2026-05-06 14:07 16.65506 -82.41276 25030 ft 450 kts 130°
2026-05-06 14:07 16.63349 -82.38913 25030 ft 450 kts 130°
2026-05-06 14:08 16.61185 -82.36541 25030 ft 450 kts 130°
2026-05-06 14:08 16.59025 -82.34175 25031 ft 450 kts 130°
2026-05-06 14:08 16.56888 -82.31834 25030 ft 450 kts 130°
2026-05-06 14:08 16.54724 -82.29465 25029 ft 450 kts 130°
2026-05-06 14:09 16.52557 -82.27094 25029 ft 450 kts 130°
2026-05-06 14:09 16.50402 -82.24736 25031 ft 450 kts 130°
2026-05-06 14:09 16.48243 -82.22373 25029 ft 450 kts 130°
2026-05-06 14:09 16.46083 -82.20009 25029 ft 450 kts 130°
2026-05-06 14:10 16.43921 -82.17641 25029 ft 450 kts 130°
2026-05-06 14:10 16.41759 -82.15271 25031 ft 450 kts 130°
2026-05-06 14:10 16.39603 -82.12909 25031 ft 451 kts 130°
2026-05-06 14:10 16.37443 -82.10544 25031 ft 450 kts 130°
2026-05-06 14:11 16.35281 -82.08177 25029 ft 450 kts 130°
2026-05-06 14:11 16.33121 -82.05811 25029 ft 450 kts 130°
2026-05-06 14:11 16.30994 -82.03482 25029 ft 450 kts 130°
2026-05-06 14:11 16.28835 -82.01117 25030 ft 450 kts 130°
2026-05-06 14:12 16.26678 -81.98757 25030 ft 450 kts 130°
2026-05-06 14:12 16.24516 -81.96392 25028 ft 450 kts 130°
2026-05-06 14:12 16.22359 -81.94031 25031 ft 450 kts 130°
2026-05-06 14:12 16.20196 -81.91666 25029 ft 450 kts 130°
2026-05-06 14:13 16.18036 -81.89304 25027 ft 450 kts 130°
2026-05-06 14:13 16.15876 -81.86943 25026 ft 450 kts 130°
2026-05-06 14:13 16.13715 -81.84582 25026 ft 450 kts 130°
2026-05-06 14:13 16.11578 -81.82248 25028 ft 450 kts 130°
2026-05-06 14:14 16.09392 -81.79862 25027 ft 450 kts 130°
2026-05-06 14:14 16.07259 -81.77534 25027 ft 450 kts 130°
2026-05-06 14:14 16.05102 -81.75180 25026 ft 450 kts 130°
2026-05-06 14:14 16.02940 -81.72823 25026 ft 450 kts 130°
2026-05-06 14:15 16.00779 -81.70465 25026 ft 450 kts 130°
2026-05-06 14:15 15.98616 -81.68108 25028 ft 450 kts 130°
2026-05-06 14:15 15.96453 -81.65750 25025 ft 450 kts 130°
2026-05-06 14:15 15.94290 -81.63396 25028 ft 450 kts 130°
2026-05-06 14:16 15.92127 -81.61040 25026 ft 450 kts 130°
2026-05-06 14:16 15.89959 -81.58680 25026 ft 450 kts 130°
2026-05-06 14:16 15.87796 -81.56327 25027 ft 450 kts 130°
2026-05-06 14:16 15.85629 -81.53969 25024 ft 451 kts 130°
2026-05-06 14:17 15.83466 -81.51616 25028 ft 451 kts 130°
2026-05-06 14:17 15.81301 -81.49262 25026 ft 451 kts 130°
2026-05-06 14:17 15.79137 -81.46910 25026 ft 450 kts 130°
2026-05-06 14:17 15.76999 -81.44587 25027 ft 450 kts 130°
2026-05-06 14:18 15.74829 -81.42231 25024 ft 450 kts 130°
2026-05-06 14:18 15.72663 -81.39879 25026 ft 450 kts 130°
2026-05-06 14:18 15.70490 -81.37521 25028 ft 451 kts 130°
2026-05-06 14:18 15.68321 -81.35166 25027 ft 451 kts 130°
2026-05-06 14:19 15.66151 -81.32813 25023 ft 451 kts 130°
2026-05-06 14:19 15.63981 -81.30460 25026 ft 450 kts 131°
2026-05-06 14:19 15.61842 -81.28142 25022 ft 450 kts 130°
2026-05-06 14:19 15.59650 -81.25767 25023 ft 450 kts 130°
2026-05-06 14:20 15.57512 -81.23451 25024 ft 450 kts 131°
2026-05-06 14:20 15.55343 -81.21103 25020 ft 450 kts 131°
2026-05-06 14:20 15.53176 -81.18758 25019 ft 450 kts 131°
2026-05-06 14:20 15.51004 -81.16408 25023 ft 450 kts 131°
2026-05-06 14:21 15.48842 -81.14069 25021 ft 450 kts 131°
2026-05-06 14:21 15.46676 -81.11725 25023 ft 450 kts 131°
2026-05-06 14:21 15.44505 -81.09378 25021 ft 450 kts 131°
2026-05-06 14:21 15.42335 -81.07033 25021 ft 450 kts 131°
2026-05-06 14:22 15.40163 -81.04686 25020 ft 450 kts 131°
2026-05-06 14:22 15.37995 -81.02345 25021 ft 450 kts 131°
2026-05-06 14:22 15.35852 -81.00030 25020 ft 450 kts 131°
2026-05-06 14:22 15.33678 -80.97684 25022 ft 450 kts 131°
2026-05-06 14:23 15.31505 -80.95339 25022 ft 450 kts 131°
2026-05-06 14:23 15.29334 -80.92996 25021 ft 450 kts 131°
2026-05-06 14:23 15.27193 -80.90688 25021 ft 450 kts 131°
2026-05-06 14:23 15.25022 -80.88348 25021 ft 450 kts 131°
2026-05-06 14:24 15.22853 -80.86009 25020 ft 450 kts 131°
2026-05-06 14:24 15.20675 -80.83664 25020 ft 450 kts 131°
2026-05-06 14:24 15.18503 -80.81324 25018 ft 450 kts 131°
2026-05-06 14:24 15.16326 -80.78979 25016 ft 450 kts 131°
2026-05-06 14:25 15.14158 -80.76646 25019 ft 450 kts 131°
2026-05-06 14:25 15.11987 -80.74311 25017 ft 450 kts 131°
2026-05-06 14:25 15.09812 -80.71971 25018 ft 450 kts 131°
2026-05-06 14:25 15.07674 -80.69671 25018 ft 450 kts 131°
2026-05-06 14:26 15.05500 -80.67333 25017 ft 450 kts 131°
2026-05-06 14:26 15.03320 -80.64989 25019 ft 450 kts 131°
2026-05-06 14:26 15.01061 -80.62739 25019 ft 452 kts 135°
2026-05-06 14:26 14.98669 -80.60608 25019 ft 453 kts 137°
2026-05-06 14:27 14.96243 -80.58539 25020 ft 453 kts 138°
2026-05-06 14:27 14.93788 -80.56487 25019 ft 453 kts 138°
2026-05-06 14:27 14.91331 -80.54457 25017 ft 453 kts 139°
2026-05-06 14:27 14.88861 -80.52428 25019 ft 453 kts 139°
2026-05-06 14:28 14.86388 -80.50404 25019 ft 453 kts 139°
2026-05-06 14:28 14.83938 -80.48404 25018 ft 453 kts 139°
2026-05-06 14:28 14.81464 -80.46389 25018 ft 453 kts 139°
2026-05-06 14:28 14.78980 -80.44367 25017 ft 453 kts 139°
2026-05-06 14:29 14.76503 -80.42353 25016 ft 453 kts 139°
2026-05-06 14:29 14.74022 -80.40338 25015 ft 453 kts 139°
2026-05-06 14:29 14.71542 -80.38324 25015 ft 453 kts 139°
2026-05-06 14:29 14.69065 -80.36314 25013 ft 453 kts 139°
2026-05-06 14:30 14.66586 -80.34303 25013 ft 453 kts 139°
2026-05-06 14:30 14.64103 -80.32289 25014 ft 453 kts 139°
2026-05-06 14:30 14.61644 -80.30295 25015 ft 453 kts 139°
2026-05-06 14:30 14.59160 -80.28281 25013 ft 453 kts 139°
2026-05-06 14:31 14.56682 -80.26274 25011 ft 453 kts 139°
2026-05-06 14:31 14.54207 -80.24269 25013 ft 453 kts 139°
2026-05-06 14:31 14.51729 -80.22263 25011 ft 453 kts 139°
2026-05-06 14:31 14.49250 -80.20257 25011 ft 452 kts 139°
2026-05-06 14:32 14.46772 -80.18252 25013 ft 452 kts 139°
2026-05-06 14:32 14.44296 -80.16249 25012 ft 452 kts 139°
2026-05-06 14:32 14.41846 -80.14269 25013 ft 452 kts 139°
2026-05-06 14:32 14.39366 -80.12264 25013 ft 452 kts 139°
2026-05-06 14:33 14.36887 -80.10260 25014 ft 452 kts 139°
2026-05-06 14:33 14.34416 -80.08264 25013 ft 452 kts 139°
2026-05-06 14:33 14.31938 -80.06263 25011 ft 452 kts 139°
2026-05-06 14:33 14.29461 -80.04264 25007 ft 452 kts 139°
2026-05-06 14:34 14.26979 -80.02260 25008 ft 452 kts 139°
2026-05-06 14:34 14.24505 -80.00264 25008 ft 452 kts 139°
2026-05-06 14:34 14.22028 -79.98266 25009 ft 452 kts 139°
2026-05-06 14:34 14.19549 -79.96267 25007 ft 452 kts 139°
2026-05-06 14:35 14.17098 -79.94292 25005 ft 452 kts 139°
2026-05-06 14:35 14.14621 -79.92294 25004 ft 452 kts 139°
2026-05-06 14:35 14.12144 -79.90299 25004 ft 452 kts 139°
2026-05-06 14:35 14.09669 -79.88305 25006 ft 452 kts 139°
2026-05-06 14:36 14.07189 -79.86308 25005 ft 452 kts 139°
2026-05-06 14:36 14.04712 -79.84314 25004 ft 452 kts 139°
2026-05-06 14:36 14.02237 -79.82321 25005 ft 452 kts 139°
2026-05-06 14:36 13.99758 -79.80327 25004 ft 452 kts 139°
2026-05-06 14:37 13.97283 -79.78337 25004 ft 451 kts 139°
2026-05-06 14:37 13.94806 -79.76345 25003 ft 451 kts 139°
2026-05-06 14:37 13.92329 -79.74354 25001 ft 452 kts 139°
2026-05-06 14:37 13.89850 -79.72361 24999 ft 452 kts 139°
2026-05-06 14:38 13.87398 -79.70391 24999 ft 451 kts 139°
2026-05-06 14:38 13.84913 -79.68394 24999 ft 451 kts 139°
2026-05-06 14:38 13.82438 -79.66407 24999 ft 451 kts 139°
2026-05-06 14:38 13.79965 -79.64422 24998 ft 451 kts 139°
2026-05-06 14:39 13.77483 -79.62430 24998 ft 451 kts 139°
2026-05-06 14:39 13.75025 -79.60458 24998 ft 451 kts 139°
2026-05-06 14:39 13.72565 -79.58485 24997 ft 451 kts 139°
2026-05-06 14:39 13.70084 -79.56495 24998 ft 451 kts 139°
2026-05-06 14:40 13.67606 -79.54509 24998 ft 451 kts 139°
2026-05-06 14:40 13.65132 -79.52526 24996 ft 451 kts 139°
2026-05-06 14:40 13.62658 -79.50544 24996 ft 451 kts 139°
2026-05-06 14:40 13.60187 -79.48565 24997 ft 451 kts 139°
2026-05-06 14:41 13.57705 -79.46577 24995 ft 451 kts 139°
2026-05-06 14:41 13.55228 -79.44593 24995 ft 451 kts 139°
2026-05-06 14:41 13.52780 -79.42633 24994 ft 450 kts 139°
2026-05-06 14:41 13.50309 -79.40656 24997 ft 450 kts 139°
2026-05-06 14:42 13.47834 -79.38676 24996 ft 450 kts 139°
2026-05-06 14:42 13.45361 -79.36697 24994 ft 450 kts 139°
2026-05-06 14:42 13.42891 -79.34721 24995 ft 451 kts 139°
2026-05-06 14:42 13.40413 -79.32739 24994 ft 451 kts 139°
2026-05-06 14:43 13.37939 -79.30763 24992 ft 450 kts 139°
2026-05-06 14:43 13.35464 -79.28787 24991 ft 450 kts 139°
2026-05-06 14:43 13.32998 -79.26818 24991 ft 450 kts 139°
2026-05-06 14:43 13.30520 -79.24840 24992 ft 450 kts 139°
2026-05-06 14:44 13.28047 -79.22866 24989 ft 451 kts 139°
2026-05-06 14:44 13.25575 -79.20893 24991 ft 450 kts 139°
2026-05-06 14:44 13.23099 -79.18919 24992 ft 450 kts 139°
2026-05-06 14:45 13.18154 -79.14975 24987 ft 450 kts 139°
2026-05-06 14:45 13.15685 -79.13006 24988 ft 450 kts 139°
2026-05-06 14:45 13.13206 -79.11030 24987 ft 451 kts 139°
2026-05-06 14:45 13.10763 -79.09084 24987 ft 450 kts 139°
2026-05-06 14:46 13.08286 -79.07111 24991 ft 450 kts 139°
2026-05-06 14:46 13.05816 -79.05143 24988 ft 450 kts 139°
2026-05-06 14:46 13.03343 -79.03173 24982 ft 450 kts 139°
2026-05-06 14:46 13.00862 -79.01198 24985 ft 450 kts 139°
2026-05-06 14:47 12.98383 -78.99224 24983 ft 451 kts 139°
2026-05-06 14:47 12.95911 -78.97257 24986 ft 451 kts 139°
2026-05-06 14:47 12.93428 -78.95282 24986 ft 450 kts 139°
2026-05-06 14:47 12.90954 -78.93314 24985 ft 450 kts 139°
2026-05-06 14:48 12.88485 -78.91350 24982 ft 450 kts 139°
2026-05-06 14:48 12.86004 -78.89379 24980 ft 451 kts 139°
2026-05-06 14:48 12.83526 -78.87409 24985 ft 451 kts 139°
2026-05-06 14:48 12.81048 -78.85441 24979 ft 451 kts 139°
2026-05-06 14:49 12.78599 -78.83496 24982 ft 451 kts 139°
2026-05-06 14:49 12.76126 -78.81531 24981 ft 450 kts 139°
2026-05-06 14:49 12.73648 -78.79564 24974 ft 450 kts 139°
2026-05-06 14:49 12.71170 -78.77597 24981 ft 450 kts 139°
2026-05-06 14:50 12.68691 -78.75630 24979 ft 451 kts 139°
2026-05-06 14:50 12.66206 -78.73659 24981 ft 451 kts 139°
2026-05-06 14:50 12.63729 -78.71693 24977 ft 451 kts 139°
2026-05-06 14:50 12.62085 -78.70389 24975 ft 451 kts 139°
2026-05-06 14:51 12.59605 -78.68424 24976 ft 451 kts 139°
2026-05-06 14:51 12.57132 -78.66464 24975 ft 450 kts 139°
2026-05-06 14:51 12.54648 -78.64495 24976 ft 451 kts 139°
2026-05-06 14:51 12.52171 -78.62532 24978 ft 451 kts 139°
2026-05-06 14:52 12.49688 -78.60566 24980 ft 451 kts 139°
2026-05-06 14:52 12.47208 -78.58602 24982 ft 451 kts 139°
2026-05-06 14:52 12.44717 -78.56630 24976 ft 451 kts 139°
2026-05-06 14:52 12.42234 -78.54665 24969 ft 451 kts 139°
2026-05-06 14:53 12.39752 -78.52702 24973 ft 451 kts 139°
2026-05-06 14:53 12.37268 -78.50737 24979 ft 451 kts 139°
2026-05-06 14:53 12.34783 -78.48772 24971 ft 451 kts 139°
2026-05-06 14:53 12.32298 -78.46808 24971 ft 451 kts 139°
2026-05-06 14:54 12.29818 -78.44847 24970 ft 451 kts 139°
2026-05-06 14:54 12.27362 -78.42906 24971 ft 451 kts 139°
2026-05-06 14:54 12.24872 -78.40939 24973 ft 451 kts 139°
2026-05-06 14:54 12.22393 -78.38981 24972 ft 451 kts 139°
2026-05-06 14:55 12.19904 -78.37015 24970 ft 451 kts 139°
2026-05-06 14:55 12.17419 -78.35054 24971 ft 451 kts 139°
2026-05-06 14:55 12.14936 -78.33094 24969 ft 451 kts 139°
2026-05-06 14:55 12.12450 -78.31132 24967 ft 451 kts 139°
2026-05-06 14:56 12.09964 -78.29170 24969 ft 451 kts 139°
2026-05-06 14:56 12.07477 -78.27208 24969 ft 451 kts 139°
2026-05-06 14:56 12.04988 -78.25245 24967 ft 451 kts 139°
2026-05-06 14:56 12.02540 -78.23314 24970 ft 451 kts 139°
2026-05-06 14:57 12.00046 -78.21349 24971 ft 451 kts 139°
2026-05-06 14:57 11.97559 -78.19387 24968 ft 451 kts 139°
2026-05-06 14:57 11.95074 -78.17429 24969 ft 451 kts 139°
2026-05-06 14:57 11.92585 -78.15468 24966 ft 451 kts 139°
2026-05-06 14:58 11.90099 -78.13512 24969 ft 451 kts 139°
2026-05-06 14:58 11.87613 -78.11555 24968 ft 451 kts 139°
2026-05-06 14:58 11.85125 -78.09596 24962 ft 451 kts 139°
2026-05-06 14:58 11.82674 -78.07667 24970 ft 451 kts 139°
2026-05-06 14:59 11.80185 -78.05709 24966 ft 451 kts 139°
2026-05-06 14:59 11.77700 -78.03754 24968 ft 451 kts 139°
2026-05-06 14:59 11.75210 -78.01796 24967 ft 451 kts 139°
2026-05-06 14:59 11.72720 -77.99838 24957 ft 451 kts 139°
2026-05-06 15:00 11.70236 -77.97885 24964 ft 451 kts 139°
2026-05-06 15:00 11.67748 -77.95929 24961 ft 451 kts 139°
2026-05-06 15:00 11.65258 -77.93972 24964 ft 451 kts 139°
2026-05-06 15:00 11.62771 -77.92019 24963 ft 451 kts 139°
2026-05-06 15:01 11.60318 -77.90093 24972 ft 451 kts 139°
2026-05-06 15:01 11.57833 -77.88142 24970 ft 451 kts 139°
2026-05-06 15:01 11.55342 -77.86187 24962 ft 451 kts 139°
2026-05-06 15:01 11.52857 -77.84237 24963 ft 451 kts 140°
2026-05-06 15:02 11.50370 -77.82287 24968 ft 451 kts 139°
2026-05-06 15:02 11.47878 -77.80332 24967 ft 451 kts 140°
2026-05-06 15:02 11.45394 -77.78385 24955 ft 451 kts 139°
2026-05-06 15:02 11.42903 -77.76431 24965 ft 451 kts 139°
2026-05-06 15:03 11.40419 -77.74484 24960 ft 451 kts 139°
2026-05-06 15:03 11.37936 -77.72537 24965 ft 451 kts 140°
2026-05-06 15:03 11.35474 -77.70608 24964 ft 451 kts 140°
2026-05-06 15:03 11.32989 -77.68660 24966 ft 451 kts 140°
2026-05-06 15:04 11.30501 -77.66711 24966 ft 451 kts 140°
2026-05-06 15:04 11.28010 -77.64761 24959 ft 451 kts 140°
2026-05-06 15:04 11.25517 -77.62810 24957 ft 451 kts 140°
2026-05-06 15:04 11.23031 -77.60863 24955 ft 450 kts 140°
2026-05-06 15:05 11.20544 -77.58918 24962 ft 450 kts 140°
2026-05-06 15:05 11.18059 -77.56974 24956 ft 451 kts 140°
2026-05-06 15:05 11.15603 -77.55053 24956 ft 451 kts 140°
2026-05-06 15:05 11.13112 -77.53105 24951 ft 451 kts 140°
2026-05-06 15:06 11.10618 -77.51155 24950 ft 451 kts 140°
2026-05-06 15:06 11.08134 -77.49214 24957 ft 450 kts 140°
2026-05-06 15:06 11.05649 -77.47271 24950 ft 451 kts 140°
2026-05-06 15:06 11.03151 -77.45320 24949 ft 451 kts 140°
2026-05-06 15:07 11.00702 -77.43333 24951 ft 449 kts 135°
2026-05-06 15:07 10.98501 -77.41100 24948 ft 447 kts 131°
2026-05-06 15:07 10.96386 -77.38768 24953 ft 447 kts 129°
2026-05-06 15:07 10.94340 -77.36429 24950 ft 447 kts 129°
2026-05-06 15:08 10.92296 -77.34047 24955 ft 447 kts 128°
2026-05-06 15:08 10.90260 -77.31652 24956 ft 446 kts 128°
2026-05-06 15:08 10.88240 -77.29260 24955 ft 446 kts 128°
2026-05-06 15:08 10.86215 -77.26851 24944 ft 446 kts 128°
2026-05-06 15:09 10.84196 -77.24444 24954 ft 447 kts 128°
2026-05-06 15:09 10.82182 -77.22038 24950 ft 447 kts 128°
2026-05-06 15:09 10.80154 -77.19615 24949 ft 447 kts 128°
2026-05-06 15:09 10.78166 -77.17238 24946 ft 447 kts 128°
2026-05-06 15:10 10.76150 -77.14827 24947 ft 447 kts 128°
2026-05-06 15:10 10.74133 -77.12412 24943 ft 447 kts 128°
2026-05-06 15:10 10.72123 -77.10009 24949 ft 447 kts 128°
2026-05-06 15:10 10.70110 -77.07601 24952 ft 447 kts 128°
2026-05-06 15:11 10.68091 -77.05186 24948 ft 447 kts 128°
2026-05-06 15:11 10.66079 -77.02778 24951 ft 447 kts 128°
2026-05-06 15:11 10.64071 -77.00374 24946 ft 447 kts 128°
2026-05-06 15:11 10.62057 -76.97964 24942 ft 447 kts 128°
2026-05-06 15:12 10.60036 -76.95545 24941 ft 447 kts 128°
2026-05-06 15:12 10.58023 -76.93136 24949 ft 447 kts 128°
2026-05-06 15:12 10.56010 -76.90727 24945 ft 447 kts 128°
2026-05-06 15:12 10.53998 -76.88321 24942 ft 447 kts 128°
2026-05-06 15:13 10.52015 -76.85948 24936 ft 447 kts 128°
2026-05-06 15:13 10.50003 -76.83543 24937 ft 446 kts 128°
2026-05-06 15:13 10.47995 -76.81142 24938 ft 446 kts 128°
2026-05-06 15:13 10.45977 -76.78730 24939 ft 446 kts 128°
2026-05-06 15:14 10.43965 -76.76325 24939 ft 447 kts 128°
2026-05-06 15:14 10.41949 -76.73917 24939 ft 447 kts 128°
2026-05-06 15:14 10.39934 -76.71511 24940 ft 446 kts 128°
2026-05-06 15:14 10.37922 -76.69109 24933 ft 446 kts 128°
2026-05-06 15:15 10.35906 -76.66705 24941 ft 446 kts 128°
2026-05-06 15:15 10.33892 -76.64301 24936 ft 446 kts 128°
2026-05-06 15:15 10.31884 -76.61904 24935 ft 446 kts 128°
2026-05-06 15:15 10.29902 -76.59538 24938 ft 446 kts 128°
2026-05-06 15:16 10.27863 -76.57106 24939 ft 446 kts 128°
2026-05-06 15:16 10.25875 -76.54735 24933 ft 446 kts 128°
2026-05-06 15:16 10.23866 -76.52338 24934 ft 446 kts 128°
2026-05-06 15:16 10.21853 -76.49939 24939 ft 445 kts 128°
2026-05-06 15:17 10.19839 -76.47539 24935 ft 445 kts 128°
2026-05-06 15:17 10.17830 -76.45145 24933 ft 446 kts 128°
2026-05-06 15:17 10.15820 -76.42750 24930 ft 446 kts 129°
2026-05-06 15:17 10.13831 -76.40381 24940 ft 446 kts 129°
2026-05-06 15:18 10.11769 -76.37926 24937 ft 445 kts 129°
2026-05-06 15:18 10.09757 -76.35532 24934 ft 445 kts 129°
2026-05-06 15:18 10.07746 -76.33139 24928 ft 445 kts 129°
2026-05-06 15:18 10.05738 -76.30750 24932 ft 445 kts 129°
2026-05-06 15:19 10.03728 -76.28358 24933 ft 445 kts 129°
2026-05-06 15:19 10.01710 -76.25958 24924 ft 445 kts 129°
2026-05-06 15:19 9.99704 -76.23573 24925 ft 445 kts 129°
2026-05-06 15:19 9.97716 -76.21208 24926 ft 445 kts 129°
2026-05-06 15:20 9.95705 -76.18817 24927 ft 445 kts 129°
2026-05-06 15:20 9.93698 -76.16433 24931 ft 445 kts 129°
2026-05-06 15:20 9.91687 -76.14044 24928 ft 445 kts 129°
2026-05-06 15:20 9.89677 -76.11653 24933 ft 445 kts 128°
2026-05-06 15:21 9.87674 -76.09246 24927 ft 445 kts 128°
2026-05-06 15:21 9.85689 -76.06847 24934 ft 445 kts 128°
2026-05-06 15:21 9.83700 -76.04438 24921 ft 445 kts 128°
2026-05-06 15:21 9.81717 -76.02032 24921 ft 445 kts 128°
2026-05-06 15:22 9.79733 -75.99625 24926 ft 445 kts 128°
2026-05-06 15:22 9.77746 -75.97214 24932 ft 445 kts 128°
2026-05-06 15:22 9.75759 -75.94801 24932 ft 445 kts 128°
2026-05-06 15:22 9.73774 -75.92391 24922 ft 445 kts 128°
2026-05-06 15:23 9.71790 -75.89981 24933 ft 445 kts 128°
2026-05-06 15:23 9.69806 -75.87573 24921 ft 445 kts 128°
2026-05-06 15:23 9.67818 -75.85162 24930 ft 445 kts 128°
2026-05-06 15:23 9.65859 -75.82786 24931 ft 445 kts 128°
2026-05-06 15:24 9.63875 -75.80380 24933 ft 445 kts 128°
2026-05-06 15:24 9.61886 -75.77968 24934 ft 445 kts 128°
2026-05-06 15:24 9.59897 -75.75557 24925 ft 445 kts 128°
2026-05-06 15:24 9.57911 -75.73148 24930 ft 445 kts 128°
2026-05-06 15:25 9.55925 -75.70740 24935 ft 445 kts 128°
2026-05-06 15:25 9.53937 -75.68332 24934 ft 445 kts 128°
2026-05-06 15:25 9.51945 -75.65919 24930 ft 445 kts 128°
2026-05-06 15:25 9.49958 -75.63512 24932 ft 445 kts 128°
2026-05-06 15:26 9.47966 -75.61099 24934 ft 445 kts 128°
2026-05-06 15:26 9.45982 -75.58698 24938 ft 445 kts 128°
2026-05-06 15:26 9.44013 -75.56315 24937 ft 445 kts 128°
2026-05-06 15:26 9.42021 -75.53905 24934 ft 445 kts 128°
2026-05-06 15:27 9.40032 -75.51499 24939 ft 445 kts 128°
2026-05-06 15:27 9.38042 -75.49092 24939 ft 445 kts 128°
2026-05-06 15:27 9.36047 -75.46681 24935 ft 445 kts 128°
2026-05-06 15:27 9.34061 -75.44280 24935 ft 445 kts 128°
2026-05-06 15:28 9.32070 -75.41873 24933 ft 445 kts 128°
2026-05-06 15:28 9.30102 -75.39491 24938 ft 445 kts 128°
2026-05-06 15:28 9.28110 -75.37084 24934 ft 446 kts 129°
2026-05-06 15:28 9.26121 -75.34679 24945 ft 445 kts 129°
2026-05-06 15:29 9.24133 -75.32278 24939 ft 445 kts 129°
2026-05-06 15:29 9.22140 -75.29870 24938 ft 445 kts 129°
2026-05-06 15:29 9.20146 -75.27462 24934 ft 445 kts 129°
2026-05-06 15:29 9.18157 -75.25060 24941 ft 446 kts 129°
2026-05-06 15:30 9.16167 -75.22659 24939 ft 445 kts 129°
2026-05-06 15:30 9.14170 -75.20249 24930 ft 445 kts 129°
2026-05-06 15:30 9.12180 -75.17848 24939 ft 445 kts 129°
2026-05-06 15:30 9.10185 -75.15442 24933 ft 445 kts 129°
2026-05-06 15:31 9.08196 -75.13043 24932 ft 445 kts 129°
2026-05-06 15:31 9.06208 -75.10646 24926 ft 445 kts 129°
2026-05-06 15:31 9.04214 -75.08242 24925 ft 445 kts 129°
2026-05-06 15:32 9.00257 -75.03474 24936 ft 445 kts 129°
2026-05-06 15:32 8.98267 -75.01076 24941 ft 445 kts 129°
2026-05-06 15:32 8.96279 -74.98680 24927 ft 445 kts 129°
2026-05-06 15:32 8.94260 -74.96249 24935 ft 445 kts 129°
2026-05-06 15:33 8.92296 -74.93884 24928 ft 445 kts 129°
2026-05-06 15:33 8.90302 -74.91483 24937 ft 445 kts 129°
2026-05-06 15:33 8.88313 -74.89088 24923 ft 445 kts 129°
2026-05-06 15:33 8.86320 -74.86689 24934 ft 445 kts 129°
2026-05-06 15:34 8.84975 -74.85070 24924 ft 445 kts 129°
2026-05-06 15:34 8.83005 -74.82700 24932 ft 445 kts 129°
2026-05-06 15:34 8.81006 -74.80295 24925 ft 445 kts 129°
2026-05-06 15:34 8.79016 -74.77901 24933 ft 445 kts 129°
2026-05-06 15:35 8.77024 -74.75506 24922 ft 445 kts 129°
2026-05-06 15:35 8.75028 -74.73106 24929 ft 444 kts 129°
2026-05-06 15:35 8.73038 -74.70713 24924 ft 444 kts 129°
2026-05-06 15:35 8.71074 -74.68352 24933 ft 444 kts 129°
2026-05-06 15:36 8.69082 -74.65959 24927 ft 444 kts 129°
2026-05-06 15:36 8.67067 -74.63537 24926 ft 444 kts 129°
2026-05-06 15:36 8.65079 -74.61148 24931 ft 444 kts 129°
2026-05-06 15:36 8.63109 -74.58783 24926 ft 444 kts 129°
2026-05-06 15:37 8.61122 -74.56396 24935 ft 444 kts 129°
2026-05-06 15:37 8.59133 -74.54008 24929 ft 444 kts 129°
2026-05-06 15:37 8.57141 -74.51617 24932 ft 444 kts 129°
2026-05-06 15:37 8.55152 -74.49229 24940 ft 444 kts 129°
2026-05-06 15:38 8.53159 -74.46837 24935 ft 444 kts 129°
2026-05-06 15:38 8.51164 -74.44445 24939 ft 444 kts 129°
2026-05-06 15:38 8.49173 -74.42057 24937 ft 444 kts 129°
2026-05-06 15:38 8.47182 -74.39667 24946 ft 444 kts 129°
2026-05-06 15:39 8.45192 -74.37281 24954 ft 444 kts 129°
2026-05-06 15:39 8.43229 -74.34927 24947 ft 444 kts 129°
2026-05-06 15:39 8.41235 -74.32535 24950 ft 444 kts 129°
2026-05-06 15:39 8.39246 -74.30150 24958 ft 444 kts 129°
2026-05-06 15:40 8.37247 -74.27755 24965 ft 444 kts 129°
2026-05-06 15:40 8.35255 -74.25369 24954 ft 444 kts 129°
2026-05-06 15:40 8.33265 -74.22986 24955 ft 444 kts 129°
2026-05-06 15:40 8.31271 -74.20596 24965 ft 444 kts 129°
2026-05-06 15:41 8.29304 -74.18239 24961 ft 444 kts 129°
2026-05-06 15:41 8.27312 -74.15854 24966 ft 444 kts 129°
2026-05-06 15:41 8.25318 -74.13467 24956 ft 444 kts 129°
2026-05-06 15:41 8.23326 -74.11083 24962 ft 444 kts 129°
2026-05-06 15:42 8.21332 -74.08696 24969 ft 444 kts 129°
2026-05-06 15:42 8.19339 -74.06311 24970 ft 444 kts 129°
2026-05-06 15:42 8.17350 -74.03931 24961 ft 444 kts 129°
2026-05-06 15:42 8.15354 -74.01543 24968 ft 444 kts 129°
2026-05-06 15:43 8.13384 -73.99188 24954 ft 444 kts 129°
2026-05-06 15:43 8.11385 -73.96797 24961 ft 444 kts 129°
2026-05-06 15:43 8.09396 -73.94420 24966 ft 444 kts 129°
2026-05-06 15:43 8.07406 -73.92034 24950 ft 444 kts 129°
2026-05-06 15:44 8.05864 -73.89367 24938 ft 441 kts 109°
2026-05-06 15:44 8.05438 -73.86324 24934 ft 440 kts 87°
2026-05-06 15:44 8.06166 -73.83336 24940 ft 440 kts 67°
2026-05-06 15:44 8.07496 -73.80546 24955 ft 441 kts 63°
2026-05-06 15:45 8.08944 -73.77810 24948 ft 443 kts 62°
2026-05-06 15:45 8.10410 -73.75126 24956 ft 442 kts 61°
2026-05-06 15:45 8.11897 -73.72423 24953 ft 441 kts 61°
2026-05-06 15:45 8.13380 -73.69705 24954 ft 441 kts 62°
2026-05-06 15:46 8.14843 -73.66973 24945 ft 442 kts 62°
2026-05-06 15:46 8.16295 -73.64230 24947 ft 442 kts 62°
2026-05-06 15:46 8.17728 -73.61488 24963 ft 442 kts 62°
2026-05-06 15:46 8.19147 -73.58738 24965 ft 441 kts 63°
2026-05-06 15:47 8.20552 -73.55986 24962 ft 441 kts 63°
2026-05-06 15:47 8.21951 -73.53220 24966 ft 441 kts 63°
2026-05-06 15:47 8.23337 -73.50459 24986 ft 441 kts 63°
2026-05-06 15:47 8.24715 -73.47697 24991 ft 440 kts 63°
2026-05-06 15:48 8.26069 -73.44969 24981 ft 440 kts 63°
2026-05-06 15:48 8.27457 -73.42164 25007 ft 439 kts 64°
2026-05-06 15:48 8.28803 -73.39435 25006 ft 440 kts 64°
2026-05-06 15:48 8.30163 -73.36672 25015 ft 440 kts 64°
2026-05-06 15:49 8.31522 -73.33900 25014 ft 439 kts 64°
2026-05-06 15:49 8.32876 -73.31136 25022 ft 439 kts 64°
2026-05-06 15:49 8.34231 -73.28366 25008 ft 439 kts 64°
2026-05-06 15:49 8.35587 -73.25595 24753 ft 441 kts 64°
2026-05-06 15:50 8.36937 -73.22820 24052 ft 438 kts 64°
2026-05-06 15:50 8.38265 -73.20082 22701 ft 427 kts 64°
2026-05-06 15:50 8.39540 -73.17438 21007 ft 405 kts 65°
2026-05-06 15:50 8.40226 -73.14771 19509 ft 396 kts 88°
2026-05-06 15:51 8.40057 -73.11946 18970 ft 408 kts 96°
2026-05-06 15:51 8.39654 -73.09141 18662 ft 398 kts 98°
2026-05-06 15:51 8.39147 -73.06409 17957 ft 391 kts 100°
2026-05-06 15:51 8.38588 -73.03776 16516 ft 374 kts 102°
2026-05-06 15:52 8.38010 -73.01285 15030 ft 354 kts 103°
2026-05-06 15:52 8.37440 -72.98930 13639 ft 336 kts 103°
2026-05-06 15:52 8.36887 -72.96672 12520 ft 330 kts 103°
2026-05-06 15:52 8.36302 -72.94312 12256 ft 362 kts 104°
2026-05-06 15:53 8.35685 -72.91895 11846 ft 349 kts 104°
2026-05-06 15:53 8.35078 -72.89539 11427 ft 350 kts 105°
2026-05-06 15:53 8.34467 -72.87177 11009 ft 347 kts 105°
2026-05-06 15:53 8.33857 -72.84815 10583 ft 348 kts 105°
2026-05-06 15:54 8.33250 -72.82462 10290 ft 345 kts 106°
2026-05-06 15:54 8.32648 -72.80118 10139 ft 346 kts 106°
2026-05-06 15:54 8.32043 -72.77774 10068 ft 343 kts 106°
2026-05-06 15:54 8.31436 -72.75429 10028 ft 345 kts 106°
2026-05-06 15:55 8.30832 -72.73092 10003 ft 344 kts 106°
2026-05-06 15:55 8.30225 -72.70743 9998 ft 344 kts 106°
2026-05-06 15:55 8.29630 -72.68440 9995 ft 344 kts 106°
2026-05-06 15:55 8.29027 -72.66095 9991 ft 344 kts 106°
2026-05-06 15:56 8.28423 -72.63752 9985 ft 345 kts 106°
2026-05-06 15:56 8.27435 -72.61569 9972 ft 345 kts 128°
2026-05-06 15:56 8.25607 -72.60011 9989 ft 345 kts 146°
2026-05-06 15:56 8.23572 -72.58820 9999 ft 315 kts 152°
2026-05-06 15:57 8.21605 -72.57894 9993 ft 314 kts 155°
2026-05-06 15:57 8.19644 -72.57093 10001 ft 281 kts 155°
2026-05-06 15:57 8.18215 -72.55999 9443 ft 253 kts 129°
2026-05-06 15:57 8.17187 -72.54618 8723 ft 239 kts 127°
2026-05-06 15:58 8.15979 -72.53586 7987 ft 228 kts 159°
2026-05-06 15:58 8.14439 -72.53653 7283 ft 227 kts 200°
2026-05-06 15:58 8.13238 -72.54657 6550 ft 222 kts 221°
2026-05-06 15:58 8.12313 -72.55903 5741 ft 221 kts 234°
2026-05-06 15:59 8.11535 -72.57194 5273 ft 209 kts 230°
2026-05-06 15:59 8.10398 -72.57965 4835 ft 190 kts 185°
2026-05-06 15:59 8.09270 -72.57582 4561 ft 175 kts 133°
2026-05-06 15:59 8.08525 -72.56622 4243 ft 168 kts 138°
2026-05-06 16:00 8.08066 -72.55537 3719 ft 178 kts 110°
2026-05-06 16:00 8.07218 -72.54735 2786 ft 182 kts 180°
2026-05-06 16:00 8.06091 -72.55070 2438 ft 164 kts 200°
2026-05-06 16:00 8.05204 -72.55250 2488 ft 121 kts 166°
2026-05-06 16:01 8.04291 -72.55396 2154 ft 149 kts 198°
2026-05-06 16:01 8.03280 -72.55465 1969 ft 152 kts 164°
2026-05-06 16:01 8.02177 -72.55258 2124 ft 166 kts 179°
2026-05-06 16:01 8.01146 -72.55242 2555 ft 134 kts 158°
2026-05-06 16:02 8.00351 -72.54792 2370 ft 135 kts 165°
2026-05-06 16:02 7.99463 -72.54507 2285 ft 135 kts 162°
2026-05-06 16:02 7.98492 -72.54434 2086 ft 142 kts 174°
2026-05-06 16:02 7.97559 -72.54207 2074 ft 143 kts 148°
2026-05-06 16:03 7.96727 -72.53565 1966 ft 154 kts 150°
2026-05-06 16:03 7.95874 -72.53070 1872 ft 130 kts 153°
2026-05-06 16:03 7.95056 -72.52544 1579 ft 144 kts 150°
2026-05-06 16:03 7.94249 -72.52064 1255 ft 126 kts 147°
2026-05-06 16:04 7.93558 -72.51653 1065 ft 90 kts 149°
2026-05-06 16:04 7.93197 -72.51437 1041 ft 48 kts 149°
2026-05-06 16:04 7.92938 -72.51283 1033 ft 41 kts 150°
2026-05-06 16:04 7.92748 -72.51166 1032 ft 26 kts 132°
2026-05-06 16:05 7.92793 -72.51010 1032 ft 23 kts 51°
2026-05-06 16:05 7.92864 -72.50937 1032 ft 12 kts 47°
2026-05-06 16:05 7.92949 -72.50957 1032 ft 18 kts 301°
2026-05-06 16:05 7.92909 -72.51006 1032 ft 9 kts 172°
2026-05-06 16:06 7.92892 -72.50970 1032 ft 5 kts 86°
2026-05-06 16:06 7.92917 -72.50938 1032 ft 6 kts 55°
2026-05-06 16:06 7.92896 -72.50919 1032 ft 4 kts 195°
2026-05-06 16:06 7.92878 -72.50929 1032 ft 0 kts 208°